<?xml version="1.0" encoding="UTF-8" standalone="no" ?>
<gpx xmlns="http://www.topografix.com/GPX/1/1" xmlns:xsi="http://www.w3.org/2001/XMLSchema-instance" xsi:schemaLocation="http://www.topografix.com/GPX/1/1 http://www.topografix.com/GPX/1/1/gpx.xsd" version="1.1" creator="VisuGPX - https://www.visugpx.com">
  <metadata>
    <name>ccv_17avril11_63km</name>
    <desc><![CDATA[ccv_17avril11_63kmccv_17avril11_63kmccv_17avril11_63kmccv_17avril11_63kmccv_17avril11_63km]]></desc>
  </metadata>
  <trk>
    <name><![CDATA[Toaster Course]]></name>
    <trkseg>
      <trkpt lat="48.63399" lon="6.31422">
        <ele>205</ele>
        <time>2011-04-12T00:00:00Z</time>
      </trkpt>
      <trkpt lat="48.634" lon="6.31418">
        <ele>205</ele>
        <time>2011-04-12T00:00:00Z</time>
      </trkpt>
      <trkpt lat="48.63461" lon="6.31447">
        <ele>205</ele>
        <time>2011-04-12T00:00:10Z</time>
      </trkpt>
      <trkpt lat="48.63521" lon="6.31253">
        <ele>207</ele>
        <time>2011-04-12T00:00:32Z</time>
      </trkpt>
      <trkpt lat="48.63447" lon="6.31109">
        <ele>204</ele>
        <time>2011-04-12T00:00:48Z</time>
      </trkpt>
      <trkpt lat="48.63477" lon="6.31077">
        <ele>205</ele>
        <time>2011-04-12T00:00:56Z</time>
      </trkpt>
      <trkpt lat="48.63496" lon="6.3107">
        <ele>205</ele>
        <time>2011-04-12T00:01:00Z</time>
      </trkpt>
      <trkpt lat="48.6363" lon="6.31164">
        <ele>211</ele>
        <time>2011-04-12T00:01:32Z</time>
      </trkpt>
      <trkpt lat="48.63778" lon="6.30633">
        <ele>207</ele>
        <time>2011-04-12T00:02:23Z</time>
      </trkpt>
      <trkpt lat="48.6381" lon="6.30541">
        <ele>207</ele>
        <time>2011-04-12T00:02:34Z</time>
      </trkpt>
      <trkpt lat="48.63862" lon="6.30427">
        <ele>209</ele>
        <time>2011-04-12T00:02:49Z</time>
      </trkpt>
      <trkpt lat="48.63897" lon="6.3042">
        <ele>209</ele>
        <time>2011-04-12T00:02:56Z</time>
      </trkpt>
      <trkpt lat="48.63997" lon="6.30353">
        <ele>212</ele>
        <time>2011-04-12T00:03:16Z</time>
      </trkpt>
      <trkpt lat="48.64179" lon="6.30311">
        <ele>222</ele>
        <time>2011-04-12T00:04:04Z</time>
      </trkpt>
      <trkpt lat="48.64248" lon="6.30266">
        <ele>222</ele>
        <time>2011-04-12T00:04:16Z</time>
      </trkpt>
      <trkpt lat="48.64273" lon="6.30257">
        <ele>223</ele>
        <time>2011-04-12T00:04:20Z</time>
      </trkpt>
      <trkpt lat="48.64355" lon="6.30247">
        <ele>221</ele>
        <time>2011-04-12T00:04:31Z</time>
      </trkpt>
      <trkpt lat="48.64468" lon="6.30202">
        <ele>220</ele>
        <time>2011-04-12T00:04:47Z</time>
      </trkpt>
      <trkpt lat="48.64498" lon="6.302">
        <ele>219</ele>
        <time>2011-04-12T00:04:51Z</time>
      </trkpt>
      <trkpt lat="48.6467" lon="6.30216">
        <ele>215</ele>
        <time>2011-04-12T00:05:14Z</time>
      </trkpt>
      <trkpt lat="48.64703" lon="6.30227">
        <ele>214</ele>
        <time>2011-04-12T00:05:19Z</time>
      </trkpt>
      <trkpt lat="48.64871" lon="6.30306">
        <ele>210</ele>
        <time>2011-04-12T00:05:42Z</time>
      </trkpt>
      <trkpt lat="48.64911" lon="6.30337">
        <ele>210</ele>
        <time>2011-04-12T00:05:48Z</time>
      </trkpt>
      <trkpt lat="48.64975" lon="6.304">
        <ele>210</ele>
        <time>2011-04-12T00:05:58Z</time>
      </trkpt>
      <trkpt lat="48.65268" lon="6.30644">
        <ele>208</ele>
        <time>2011-04-12T00:06:43Z</time>
      </trkpt>
      <trkpt lat="48.65296" lon="6.30613">
        <ele>207</ele>
        <time>2011-04-12T00:06:48Z</time>
      </trkpt>
      <trkpt lat="48.65391" lon="6.30558">
        <ele>205</ele>
        <time>2011-04-12T00:07:01Z</time>
      </trkpt>
      <trkpt lat="48.6542" lon="6.30535">
        <ele>206</ele>
        <time>2011-04-12T00:07:10Z</time>
      </trkpt>
      <trkpt lat="48.65453" lon="6.30488">
        <ele>209</ele>
        <time>2011-04-12T00:07:23Z</time>
      </trkpt>
      <trkpt lat="48.65492" lon="6.30394">
        <ele>214</ele>
        <time>2011-04-12T00:07:43Z</time>
      </trkpt>
      <trkpt lat="48.65521" lon="6.30352">
        <ele>218</ele>
        <time>2011-04-12T00:07:59Z</time>
      </trkpt>
      <trkpt lat="48.65543" lon="6.30339">
        <ele>221</ele>
        <time>2011-04-12T00:08:09Z</time>
      </trkpt>
      <trkpt lat="48.65576" lon="6.30337">
        <ele>225</ele>
        <time>2011-04-12T00:08:22Z</time>
      </trkpt>
      <trkpt lat="48.65622" lon="6.30359">
        <ele>228</ele>
        <time>2011-04-12T00:08:38Z</time>
      </trkpt>
      <trkpt lat="48.65667" lon="6.30392">
        <ele>233</ele>
        <time>2011-04-12T00:08:55Z</time>
      </trkpt>
      <trkpt lat="48.658" lon="6.30505">
        <ele>237</ele>
        <time>2011-04-12T00:09:25Z</time>
      </trkpt>
      <trkpt lat="48.65821" lon="6.30517">
        <ele>238</ele>
        <time>2011-04-12T00:09:30Z</time>
      </trkpt>
      <trkpt lat="48.65843" lon="6.30524">
        <ele>239</ele>
        <time>2011-04-12T00:09:36Z</time>
      </trkpt>
      <trkpt lat="48.65892" lon="6.30524">
        <ele>242</ele>
        <time>2011-04-12T00:09:49Z</time>
      </trkpt>
      <trkpt lat="48.65942" lon="6.30517">
        <ele>242</ele>
        <time>2011-04-12T00:09:57Z</time>
      </trkpt>
      <trkpt lat="48.6603" lon="6.30453">
        <ele>243</ele>
        <time>2011-04-12T00:10:11Z</time>
      </trkpt>
      <trkpt lat="48.66172" lon="6.30372">
        <ele>242</ele>
        <time>2011-04-12T00:10:32Z</time>
      </trkpt>
      <trkpt lat="48.66353" lon="6.30296">
        <ele>237</ele>
        <time>2011-04-12T00:10:57Z</time>
      </trkpt>
      <trkpt lat="48.66422" lon="6.30481">
        <ele>233</ele>
        <time>2011-04-12T00:11:15Z</time>
      </trkpt>
      <trkpt lat="48.66383" lon="6.30508">
        <ele>232</ele>
        <time>2011-04-12T00:11:21Z</time>
      </trkpt>
      <trkpt lat="48.66384" lon="6.3054">
        <ele>232</ele>
        <time>2011-04-12T00:11:24Z</time>
      </trkpt>
      <trkpt lat="48.66591" lon="6.31172">
        <ele>228</ele>
        <time>2011-04-12T00:12:26Z</time>
      </trkpt>
      <trkpt lat="48.66604" lon="6.31184">
        <ele>227</ele>
        <time>2011-04-12T00:12:28Z</time>
      </trkpt>
      <trkpt lat="48.66618" lon="6.31181">
        <ele>227</ele>
        <time>2011-04-12T00:12:30Z</time>
      </trkpt>
      <trkpt lat="48.66685" lon="6.31149">
        <ele>227</ele>
        <time>2011-04-12T00:12:39Z</time>
      </trkpt>
      <trkpt lat="48.66733" lon="6.3112">
        <ele>227</ele>
        <time>2011-04-12T00:12:46Z</time>
      </trkpt>
      <trkpt lat="48.66761" lon="6.31115">
        <ele>227</ele>
        <time>2011-04-12T00:12:50Z</time>
      </trkpt>
      <trkpt lat="48.66769" lon="6.31124">
        <ele>227</ele>
        <time>2011-04-12T00:12:51Z</time>
      </trkpt>
      <trkpt lat="48.66786" lon="6.31148">
        <ele>227</ele>
        <time>2011-04-12T00:12:55Z</time>
      </trkpt>
      <trkpt lat="48.66825" lon="6.3124">
        <ele>226</ele>
        <time>2011-04-12T00:13:04Z</time>
      </trkpt>
      <trkpt lat="48.66867" lon="6.31352">
        <ele>226</ele>
        <time>2011-04-12T00:13:16Z</time>
      </trkpt>
      <trkpt lat="48.66939" lon="6.31574">
        <ele>226</ele>
        <time>2011-04-12T00:13:37Z</time>
      </trkpt>
      <trkpt lat="48.67047" lon="6.32006">
        <ele>222</ele>
        <time>2011-04-12T00:14:18Z</time>
      </trkpt>
      <trkpt lat="48.67063" lon="6.32073">
        <ele>222</ele>
        <time>2011-04-12T00:14:25Z</time>
      </trkpt>
      <trkpt lat="48.67066" lon="6.32103">
        <ele>222</ele>
        <time>2011-04-12T00:14:28Z</time>
      </trkpt>
      <trkpt lat="48.67065" lon="6.32183">
        <ele>223</ele>
        <time>2011-04-12T00:14:37Z</time>
      </trkpt>
      <trkpt lat="48.67045" lon="6.32232">
        <ele>223</ele>
        <time>2011-04-12T00:14:42Z</time>
      </trkpt>
      <trkpt lat="48.67007" lon="6.32299">
        <ele>223</ele>
        <time>2011-04-12T00:14:49Z</time>
      </trkpt>
      <trkpt lat="48.67002" lon="6.32315">
        <ele>223</ele>
        <time>2011-04-12T00:14:51Z</time>
      </trkpt>
      <trkpt lat="48.67002" lon="6.32366">
        <ele>223</ele>
        <time>2011-04-12T00:14:55Z</time>
      </trkpt>
      <trkpt lat="48.67016" lon="6.32412">
        <ele>223</ele>
        <time>2011-04-12T00:15:00Z</time>
      </trkpt>
      <trkpt lat="48.67084" lon="6.32692">
        <ele>223</ele>
        <time>2011-04-12T00:15:26Z</time>
      </trkpt>
      <trkpt lat="48.67127" lon="6.32814">
        <ele>221</ele>
        <time>2011-04-12T00:15:38Z</time>
      </trkpt>
      <trkpt lat="48.67188" lon="6.32968">
        <ele>219</ele>
        <time>2011-04-12T00:15:54Z</time>
      </trkpt>
      <trkpt lat="48.67235" lon="6.33019">
        <ele>218</ele>
        <time>2011-04-12T00:16:02Z</time>
      </trkpt>
      <trkpt lat="48.6727" lon="6.33022">
        <ele>218</ele>
        <time>2011-04-12T00:16:07Z</time>
      </trkpt>
      <trkpt lat="48.67297" lon="6.33043">
        <ele>218</ele>
        <time>2011-04-12T00:16:11Z</time>
      </trkpt>
      <trkpt lat="48.67342" lon="6.33141">
        <ele>217</ele>
        <time>2011-04-12T00:16:21Z</time>
      </trkpt>
      <trkpt lat="48.67384" lon="6.33257">
        <ele>217</ele>
        <time>2011-04-12T00:16:33Z</time>
      </trkpt>
      <trkpt lat="48.674" lon="6.33317">
        <ele>216</ele>
        <time>2011-04-12T00:16:39Z</time>
      </trkpt>
      <trkpt lat="48.67426" lon="6.33566">
        <ele>216</ele>
        <time>2011-04-12T00:17:01Z</time>
      </trkpt>
      <trkpt lat="48.67453" lon="6.33683">
        <ele>214</ele>
        <time>2011-04-12T00:17:12Z</time>
      </trkpt>
      <trkpt lat="48.67468" lon="6.33718">
        <ele>214</ele>
        <time>2011-04-12T00:17:16Z</time>
      </trkpt>
      <trkpt lat="48.675" lon="6.3377">
        <ele>215</ele>
        <time>2011-04-12T00:17:25Z</time>
      </trkpt>
      <trkpt lat="48.67559" lon="6.33833">
        <ele>217</ele>
        <time>2011-04-12T00:17:39Z</time>
      </trkpt>
      <trkpt lat="48.67674" lon="6.3393">
        <ele>216</ele>
        <time>2011-04-12T00:17:56Z</time>
      </trkpt>
      <trkpt lat="48.67674" lon="6.3393">
        <ele>216</ele>
        <time>2011-04-12T00:17:57Z</time>
      </trkpt>
      <trkpt lat="48.67726" lon="6.33978">
        <ele>216</ele>
        <time>2011-04-12T00:18:07Z</time>
      </trkpt>
      <trkpt lat="48.67741" lon="6.33997">
        <ele>216</ele>
        <time>2011-04-12T00:18:10Z</time>
      </trkpt>
      <trkpt lat="48.67748" lon="6.34009">
        <ele>217</ele>
        <time>2011-04-12T00:18:12Z</time>
      </trkpt>
      <trkpt lat="48.67751" lon="6.34043">
        <ele>216</ele>
        <time>2011-04-12T00:18:15Z</time>
      </trkpt>
      <trkpt lat="48.67737" lon="6.34074">
        <ele>216</ele>
        <time>2011-04-12T00:18:18Z</time>
      </trkpt>
      <trkpt lat="48.67712" lon="6.3411">
        <ele>216</ele>
        <time>2011-04-12T00:18:23Z</time>
      </trkpt>
      <trkpt lat="48.6762" lon="6.34228">
        <ele>216</ele>
        <time>2011-04-12T00:18:39Z</time>
      </trkpt>
      <trkpt lat="48.67614" lon="6.34238">
        <ele>216</ele>
        <time>2011-04-12T00:18:40Z</time>
      </trkpt>
      <trkpt lat="48.67612" lon="6.34252">
        <ele>216</ele>
        <time>2011-04-12T00:18:42Z</time>
      </trkpt>
      <trkpt lat="48.67626" lon="6.34296">
        <ele>216</ele>
        <time>2011-04-12T00:18:47Z</time>
      </trkpt>
      <trkpt lat="48.67656" lon="6.34366">
        <ele>217</ele>
        <time>2011-04-12T00:18:55Z</time>
      </trkpt>
      <trkpt lat="48.67701" lon="6.3445">
        <ele>218</ele>
        <time>2011-04-12T00:19:07Z</time>
      </trkpt>
      <trkpt lat="48.67769" lon="6.34623">
        <ele>220</ele>
        <time>2011-04-12T00:19:30Z</time>
      </trkpt>
      <trkpt lat="48.67791" lon="6.34654">
        <ele>219</ele>
        <time>2011-04-12T00:19:34Z</time>
      </trkpt>
      <trkpt lat="48.678" lon="6.34662">
        <ele>219</ele>
        <time>2011-04-12T00:19:35Z</time>
      </trkpt>
      <trkpt lat="48.67819" lon="6.34667">
        <ele>219</ele>
        <time>2011-04-12T00:19:38Z</time>
      </trkpt>
      <trkpt lat="48.67938" lon="6.34673">
        <ele>219</ele>
        <time>2011-04-12T00:19:54Z</time>
      </trkpt>
      <trkpt lat="48.67977" lon="6.34687">
        <ele>219</ele>
        <time>2011-04-12T00:19:59Z</time>
      </trkpt>
      <trkpt lat="48.68041" lon="6.34738">
        <ele>219</ele>
        <time>2011-04-12T00:20:09Z</time>
      </trkpt>
      <trkpt lat="48.68108" lon="6.34815">
        <ele>221</ele>
        <time>2011-04-12T00:20:26Z</time>
      </trkpt>
      <trkpt lat="48.68146" lon="6.34868">
        <ele>223</ele>
        <time>2011-04-12T00:20:36Z</time>
      </trkpt>
      <trkpt lat="48.68181" lon="6.34927">
        <ele>223</ele>
        <time>2011-04-12T00:20:46Z</time>
      </trkpt>
      <trkpt lat="48.68204" lon="6.35008">
        <ele>225</ele>
        <time>2011-04-12T00:20:56Z</time>
      </trkpt>
      <trkpt lat="48.68249" lon="6.35122">
        <ele>221</ele>
        <time>2011-04-12T00:21:08Z</time>
      </trkpt>
      <trkpt lat="48.68307" lon="6.35256">
        <ele>217</ele>
        <time>2011-04-12T00:21:22Z</time>
      </trkpt>
      <trkpt lat="48.68344" lon="6.3533">
        <ele>217</ele>
        <time>2011-04-12T00:21:31Z</time>
      </trkpt>
      <trkpt lat="48.68374" lon="6.35375">
        <ele>218</ele>
        <time>2011-04-12T00:21:38Z</time>
      </trkpt>
      <trkpt lat="48.68496" lon="6.35527">
        <ele>225</ele>
        <time>2011-04-12T00:22:16Z</time>
      </trkpt>
      <trkpt lat="48.68604" lon="6.35644">
        <ele>233</ele>
        <time>2011-04-12T00:22:53Z</time>
      </trkpt>
      <trkpt lat="48.68703" lon="6.35732">
        <ele>237</ele>
        <time>2011-04-12T00:23:18Z</time>
      </trkpt>
      <trkpt lat="48.68731" lon="6.35744">
        <ele>238</ele>
        <time>2011-04-12T00:23:24Z</time>
      </trkpt>
      <trkpt lat="48.68914" lon="6.35769">
        <ele>245</ele>
        <time>2011-04-12T00:24:06Z</time>
      </trkpt>
      <trkpt lat="48.69072" lon="6.35798">
        <ele>251</ele>
        <time>2011-04-12T00:24:41Z</time>
      </trkpt>
      <trkpt lat="48.69149" lon="6.35828">
        <ele>253</ele>
        <time>2011-04-12T00:24:58Z</time>
      </trkpt>
      <trkpt lat="48.6925" lon="6.35947">
        <ele>258</ele>
        <time>2011-04-12T00:25:26Z</time>
      </trkpt>
      <trkpt lat="48.6947" lon="6.36224">
        <ele>256</ele>
        <time>2011-04-12T00:26:04Z</time>
      </trkpt>
      <trkpt lat="48.69473" lon="6.36231">
        <ele>255</ele>
        <time>2011-04-12T00:26:05Z</time>
      </trkpt>
      <trkpt lat="48.6947" lon="6.36258">
        <ele>254</ele>
        <time>2011-04-12T00:26:07Z</time>
      </trkpt>
      <trkpt lat="48.69397" lon="6.3648">
        <ele>248</ele>
        <time>2011-04-12T00:26:29Z</time>
      </trkpt>
      <trkpt lat="48.69381" lon="6.36539">
        <ele>245</ele>
        <time>2011-04-12T00:26:35Z</time>
      </trkpt>
      <trkpt lat="48.69353" lon="6.36677">
        <ele>239</ele>
        <time>2011-04-12T00:26:47Z</time>
      </trkpt>
      <trkpt lat="48.69352" lon="6.36693">
        <ele>238</ele>
        <time>2011-04-12T00:26:49Z</time>
      </trkpt>
      <trkpt lat="48.69361" lon="6.36737">
        <ele>237</ele>
        <time>2011-04-12T00:26:53Z</time>
      </trkpt>
      <trkpt lat="48.69383" lon="6.36786">
        <ele>236</ele>
        <time>2011-04-12T00:26:58Z</time>
      </trkpt>
      <trkpt lat="48.69409" lon="6.36797">
        <ele>236</ele>
        <time>2011-04-12T00:27:02Z</time>
      </trkpt>
      <trkpt lat="48.69423" lon="6.36812">
        <ele>235</ele>
        <time>2011-04-12T00:27:04Z</time>
      </trkpt>
      <trkpt lat="48.69445" lon="6.36851">
        <ele>233</ele>
        <time>2011-04-12T00:27:08Z</time>
      </trkpt>
      <trkpt lat="48.69494" lon="6.3701">
        <ele>229</ele>
        <time>2011-04-12T00:27:24Z</time>
      </trkpt>
      <trkpt lat="48.69521" lon="6.37116">
        <ele>224</ele>
        <time>2011-04-12T00:27:34Z</time>
      </trkpt>
      <trkpt lat="48.6953" lon="6.37133">
        <ele>224</ele>
        <time>2011-04-12T00:27:36Z</time>
      </trkpt>
      <trkpt lat="48.69574" lon="6.37186">
        <ele>221</ele>
        <time>2011-04-12T00:27:43Z</time>
      </trkpt>
      <trkpt lat="48.69679" lon="6.37288">
        <ele>225</ele>
        <time>2011-04-12T00:28:10Z</time>
      </trkpt>
      <trkpt lat="48.69728" lon="6.37358">
        <ele>226</ele>
        <time>2011-04-12T00:28:23Z</time>
      </trkpt>
      <trkpt lat="48.69777" lon="6.37453">
        <ele>229</ele>
        <time>2011-04-12T00:28:39Z</time>
      </trkpt>
      <trkpt lat="48.69819" lon="6.37554">
        <ele>230</ele>
        <time>2011-04-12T00:28:54Z</time>
      </trkpt>
      <trkpt lat="48.69917" lon="6.37754">
        <ele>235</ele>
        <time>2011-04-12T00:29:26Z</time>
      </trkpt>
      <trkpt lat="48.70057" lon="6.38014">
        <ele>237</ele>
        <time>2011-04-12T00:30:00Z</time>
      </trkpt>
      <trkpt lat="48.70151" lon="6.38178">
        <ele>237</ele>
        <time>2011-04-12T00:30:19Z</time>
      </trkpt>
      <trkpt lat="48.70181" lon="6.38299">
        <ele>235</ele>
        <time>2011-04-12T00:30:31Z</time>
      </trkpt>
      <trkpt lat="48.70204" lon="6.38354">
        <ele>235</ele>
        <time>2011-04-12T00:30:36Z</time>
      </trkpt>
      <trkpt lat="48.70237" lon="6.38413">
        <ele>233</ele>
        <time>2011-04-12T00:30:43Z</time>
      </trkpt>
      <trkpt lat="48.70336" lon="6.38556">
        <ele>231</ele>
        <time>2011-04-12T00:31:01Z</time>
      </trkpt>
      <trkpt lat="48.70342" lon="6.38581">
        <ele>231</ele>
        <time>2011-04-12T00:31:04Z</time>
      </trkpt>
      <trkpt lat="48.70338" lon="6.38612">
        <ele>231</ele>
        <time>2011-04-12T00:31:07Z</time>
      </trkpt>
      <trkpt lat="48.70292" lon="6.38711">
        <ele>231</ele>
        <time>2011-04-12T00:31:17Z</time>
      </trkpt>
      <trkpt lat="48.70292" lon="6.38711">
        <ele>231</ele>
        <time>2011-04-12T00:31:18Z</time>
      </trkpt>
      <trkpt lat="48.70284" lon="6.38726">
        <ele>231</ele>
        <time>2011-04-12T00:31:21Z</time>
      </trkpt>
      <trkpt lat="48.70283" lon="6.38749">
        <ele>231</ele>
        <time>2011-04-12T00:31:23Z</time>
      </trkpt>
      <trkpt lat="48.70287" lon="6.38757">
        <ele>231</ele>
        <time>2011-04-12T00:31:25Z</time>
      </trkpt>
      <trkpt lat="48.70414" lon="6.38903">
        <ele>235</ele>
        <time>2011-04-12T00:31:54Z</time>
      </trkpt>
      <trkpt lat="48.70487" lon="6.38999">
        <ele>237</ele>
        <time>2011-04-12T00:32:11Z</time>
      </trkpt>
      <trkpt lat="48.70495" lon="6.39002">
        <ele>237</ele>
        <time>2011-04-12T00:32:13Z</time>
      </trkpt>
      <trkpt lat="48.70557" lon="6.38943">
        <ele>238</ele>
        <time>2011-04-12T00:32:27Z</time>
      </trkpt>
      <trkpt lat="48.70609" lon="6.38905">
        <ele>240</ele>
        <time>2011-04-12T00:32:37Z</time>
      </trkpt>
      <trkpt lat="48.70629" lon="6.38897">
        <ele>240</ele>
        <time>2011-04-12T00:32:42Z</time>
      </trkpt>
      <trkpt lat="48.70645" lon="6.38894">
        <ele>241</ele>
        <time>2011-04-12T00:32:46Z</time>
      </trkpt>
      <trkpt lat="48.70664" lon="6.38898">
        <ele>242</ele>
        <time>2011-04-12T00:32:50Z</time>
      </trkpt>
      <trkpt lat="48.70731" lon="6.38934">
        <ele>245</ele>
        <time>2011-04-12T00:33:06Z</time>
      </trkpt>
      <trkpt lat="48.70758" lon="6.38934">
        <ele>244</ele>
        <time>2011-04-12T00:33:10Z</time>
      </trkpt>
      <trkpt lat="48.70965" lon="6.38781">
        <ele>241</ele>
        <time>2011-04-12T00:33:41Z</time>
      </trkpt>
      <trkpt lat="48.71232" lon="6.38575">
        <ele>243</ele>
        <time>2011-04-12T00:34:25Z</time>
      </trkpt>
      <trkpt lat="48.7128" lon="6.38559">
        <ele>244</ele>
        <time>2011-04-12T00:34:35Z</time>
      </trkpt>
      <trkpt lat="48.71352" lon="6.38553">
        <ele>246</ele>
        <time>2011-04-12T00:34:49Z</time>
      </trkpt>
      <trkpt lat="48.714" lon="6.38553">
        <ele>249</ele>
        <time>2011-04-12T00:35:03Z</time>
      </trkpt>
      <trkpt lat="48.71441" lon="6.38559">
        <ele>252</ele>
        <time>2011-04-12T00:35:16Z</time>
      </trkpt>
      <trkpt lat="48.71589" lon="6.38592">
        <ele>263</ele>
        <time>2011-04-12T00:36:02Z</time>
      </trkpt>
      <trkpt lat="48.71732" lon="6.38632">
        <ele>268</ele>
        <time>2011-04-12T00:36:33Z</time>
      </trkpt>
      <trkpt lat="48.71858" lon="6.38656">
        <ele>270</ele>
        <time>2011-04-12T00:36:55Z</time>
      </trkpt>
      <trkpt lat="48.72014" lon="6.38713">
        <ele>275</ele>
        <time>2011-04-12T00:37:28Z</time>
      </trkpt>
      <trkpt lat="48.72052" lon="6.38737">
        <ele>276</ele>
        <time>2011-04-12T00:37:36Z</time>
      </trkpt>
      <trkpt lat="48.72092" lon="6.38775">
        <ele>277</ele>
        <time>2011-04-12T00:37:45Z</time>
      </trkpt>
      <trkpt lat="48.72122" lon="6.38788">
        <ele>278</ele>
        <time>2011-04-12T00:37:51Z</time>
      </trkpt>
      <trkpt lat="48.7215" lon="6.38793">
        <ele>278</ele>
        <time>2011-04-12T00:37:55Z</time>
      </trkpt>
      <trkpt lat="48.72197" lon="6.3879">
        <ele>278</ele>
        <time>2011-04-12T00:38:01Z</time>
      </trkpt>
      <trkpt lat="48.72219" lon="6.38782">
        <ele>278</ele>
        <time>2011-04-12T00:38:04Z</time>
      </trkpt>
      <trkpt lat="48.72448" lon="6.3865">
        <ele>267</ele>
        <time>2011-04-12T00:38:37Z</time>
      </trkpt>
      <trkpt lat="48.72559" lon="6.3861">
        <ele>265</ele>
        <time>2011-04-12T00:38:52Z</time>
      </trkpt>
      <trkpt lat="48.72613" lon="6.38585">
        <ele>263</ele>
        <time>2011-04-12T00:39:00Z</time>
      </trkpt>
      <trkpt lat="48.72684" lon="6.38519">
        <ele>262</ele>
        <time>2011-04-12T00:39:11Z</time>
      </trkpt>
      <trkpt lat="48.72726" lon="6.3849">
        <ele>262</ele>
        <time>2011-04-12T00:39:17Z</time>
      </trkpt>
      <trkpt lat="48.7277" lon="6.38488">
        <ele>262</ele>
        <time>2011-04-12T00:39:23Z</time>
      </trkpt>
      <trkpt lat="48.72798" lon="6.38493">
        <ele>262</ele>
        <time>2011-04-12T00:39:27Z</time>
      </trkpt>
      <trkpt lat="48.72883" lon="6.38548">
        <ele>261</ele>
        <time>2011-04-12T00:39:39Z</time>
      </trkpt>
      <trkpt lat="48.72949" lon="6.38582">
        <ele>260</ele>
        <time>2011-04-12T00:39:49Z</time>
      </trkpt>
      <trkpt lat="48.72972" lon="6.38584">
        <ele>260</ele>
        <time>2011-04-12T00:39:52Z</time>
      </trkpt>
      <trkpt lat="48.72985" lon="6.38632">
        <ele>259</ele>
        <time>2011-04-12T00:39:56Z</time>
      </trkpt>
      <trkpt lat="48.73005" lon="6.38675">
        <ele>258</ele>
        <time>2011-04-12T00:40:01Z</time>
      </trkpt>
      <trkpt lat="48.73015" lon="6.38685">
        <ele>258</ele>
        <time>2011-04-12T00:40:02Z</time>
      </trkpt>
      <trkpt lat="48.73055" lon="6.38703">
        <ele>257</ele>
        <time>2011-04-12T00:40:08Z</time>
      </trkpt>
      <trkpt lat="48.73104" lon="6.38733">
        <ele>257</ele>
        <time>2011-04-12T00:40:16Z</time>
      </trkpt>
      <trkpt lat="48.73142" lon="6.38844">
        <ele>258</ele>
        <time>2011-04-12T00:40:28Z</time>
      </trkpt>
      <trkpt lat="48.73257" lon="6.39221">
        <ele>266</ele>
        <time>2011-04-12T00:41:24Z</time>
      </trkpt>
      <trkpt lat="48.73282" lon="6.39559">
        <ele>272</ele>
        <time>2011-04-12T00:42:09Z</time>
      </trkpt>
      <trkpt lat="48.73312" lon="6.397">
        <ele>271</ele>
        <time>2011-04-12T00:42:22Z</time>
      </trkpt>
      <trkpt lat="48.73329" lon="6.39757">
        <ele>271</ele>
        <time>2011-04-12T00:42:28Z</time>
      </trkpt>
      <trkpt lat="48.73351" lon="6.39808">
        <ele>271</ele>
        <time>2011-04-12T00:42:34Z</time>
      </trkpt>
      <trkpt lat="48.73456" lon="6.39936">
        <ele>273</ele>
        <time>2011-04-12T00:42:55Z</time>
      </trkpt>
      <trkpt lat="48.73537" lon="6.40023">
        <ele>272</ele>
        <time>2011-04-12T00:43:09Z</time>
      </trkpt>
      <trkpt lat="48.73735" lon="6.40195">
        <ele>270</ele>
        <time>2011-04-12T00:43:39Z</time>
      </trkpt>
      <trkpt lat="48.73783" lon="6.40229">
        <ele>266</ele>
        <time>2011-04-12T00:43:46Z</time>
      </trkpt>
      <trkpt lat="48.7382" lon="6.40268">
        <ele>264</ele>
        <time>2011-04-12T00:43:52Z</time>
      </trkpt>
      <trkpt lat="48.73949" lon="6.40474">
        <ele>260</ele>
        <time>2011-04-12T00:44:17Z</time>
      </trkpt>
      <trkpt lat="48.73973" lon="6.40521">
        <ele>258</ele>
        <time>2011-04-12T00:44:22Z</time>
      </trkpt>
      <trkpt lat="48.74001" lon="6.4059">
        <ele>257</ele>
        <time>2011-04-12T00:44:30Z</time>
      </trkpt>
      <trkpt lat="48.74023" lon="6.40674">
        <ele>255</ele>
        <time>2011-04-12T00:44:38Z</time>
      </trkpt>
      <trkpt lat="48.74038" lon="6.40767">
        <ele>253</ele>
        <time>2011-04-12T00:44:46Z</time>
      </trkpt>
      <trkpt lat="48.74049" lon="6.40809">
        <ele>251</ele>
        <time>2011-04-12T00:44:50Z</time>
      </trkpt>
      <trkpt lat="48.74062" lon="6.4084">
        <ele>249</ele>
        <time>2011-04-12T00:44:53Z</time>
      </trkpt>
      <trkpt lat="48.74246" lon="6.41019">
        <ele>237</ele>
        <time>2011-04-12T00:45:22Z</time>
      </trkpt>
      <trkpt lat="48.74284" lon="6.41049">
        <ele>235</ele>
        <time>2011-04-12T00:45:28Z</time>
      </trkpt>
      <trkpt lat="48.74299" lon="6.41052">
        <ele>234</ele>
        <time>2011-04-12T00:45:30Z</time>
      </trkpt>
      <trkpt lat="48.74386" lon="6.41032">
        <ele>231</ele>
        <time>2011-04-12T00:45:42Z</time>
      </trkpt>
      <trkpt lat="48.74427" lon="6.41032">
        <ele>231</ele>
        <time>2011-04-12T00:45:48Z</time>
      </trkpt>
      <trkpt lat="48.74446" lon="6.41037">
        <ele>231</ele>
        <time>2011-04-12T00:45:52Z</time>
      </trkpt>
      <trkpt lat="48.74477" lon="6.41051">
        <ele>232</ele>
        <time>2011-04-12T00:45:57Z</time>
      </trkpt>
      <trkpt lat="48.74501" lon="6.4107">
        <ele>232</ele>
        <time>2011-04-12T00:46:01Z</time>
      </trkpt>
      <trkpt lat="48.74576" lon="6.41141">
        <ele>234</ele>
        <time>2011-04-12T00:46:17Z</time>
      </trkpt>
      <trkpt lat="48.74709" lon="6.41359">
        <ele>242</ele>
        <time>2011-04-12T00:47:02Z</time>
      </trkpt>
      <trkpt lat="48.74748" lon="6.41473">
        <ele>245</ele>
        <time>2011-04-12T00:47:23Z</time>
      </trkpt>
      <trkpt lat="48.74766" lon="6.41569">
        <ele>249</ele>
        <time>2011-04-12T00:47:39Z</time>
      </trkpt>
      <trkpt lat="48.74766" lon="6.41569">
        <ele>249</ele>
        <time>2011-04-12T00:47:40Z</time>
      </trkpt>
      <trkpt lat="48.7484" lon="6.41967">
        <ele>257</ele>
        <time>2011-04-12T00:48:36Z</time>
      </trkpt>
      <trkpt lat="48.74842" lon="6.41975">
        <ele>257</ele>
        <time>2011-04-12T00:48:37Z</time>
      </trkpt>
      <trkpt lat="48.74848" lon="6.4198">
        <ele>257</ele>
        <time>2011-04-12T00:48:38Z</time>
      </trkpt>
      <trkpt lat="48.74858" lon="6.41983">
        <ele>257</ele>
        <time>2011-04-12T00:48:39Z</time>
      </trkpt>
      <trkpt lat="48.7501" lon="6.41939">
        <ele>259</ele>
        <time>2011-04-12T00:49:04Z</time>
      </trkpt>
      <trkpt lat="48.75123" lon="6.41885">
        <ele>256</ele>
        <time>2011-04-12T00:49:20Z</time>
      </trkpt>
      <trkpt lat="48.75256" lon="6.41892">
        <ele>248</ele>
        <time>2011-04-12T00:49:38Z</time>
      </trkpt>
      <trkpt lat="48.75275" lon="6.41885">
        <ele>248</ele>
        <time>2011-04-12T00:49:41Z</time>
      </trkpt>
      <trkpt lat="48.75338" lon="6.41842">
        <ele>248</ele>
        <time>2011-04-12T00:49:52Z</time>
      </trkpt>
      <trkpt lat="48.75347" lon="6.41838">
        <ele>249</ele>
        <time>2011-04-12T00:49:53Z</time>
      </trkpt>
      <trkpt lat="48.75362" lon="6.4184">
        <ele>249</ele>
        <time>2011-04-12T00:49:56Z</time>
      </trkpt>
      <trkpt lat="48.75723" lon="6.41953">
        <ele>253</ele>
        <time>2011-04-12T00:50:54Z</time>
      </trkpt>
      <trkpt lat="48.75816" lon="6.41987">
        <ele>248</ele>
        <time>2011-04-12T00:51:07Z</time>
      </trkpt>
      <trkpt lat="48.7604" lon="6.42119">
        <ele>227</ele>
        <time>2011-04-12T00:51:39Z</time>
      </trkpt>
      <trkpt lat="48.76134" lon="6.42183">
        <ele>219</ele>
        <time>2011-04-12T00:51:53Z</time>
      </trkpt>
      <trkpt lat="48.76156" lon="6.42212">
        <ele>217</ele>
        <time>2011-04-12T00:51:57Z</time>
      </trkpt>
      <trkpt lat="48.76192" lon="6.4228">
        <ele>214</ele>
        <time>2011-04-12T00:52:04Z</time>
      </trkpt>
      <trkpt lat="48.76209" lon="6.42289">
        <ele>214</ele>
        <time>2011-04-12T00:52:07Z</time>
      </trkpt>
      <trkpt lat="48.76236" lon="6.42281">
        <ele>212</ele>
        <time>2011-04-12T00:52:11Z</time>
      </trkpt>
      <trkpt lat="48.76248" lon="6.42256">
        <ele>211</ele>
        <time>2011-04-12T00:52:13Z</time>
      </trkpt>
      <trkpt lat="48.76249" lon="6.42134">
        <ele>207</ele>
        <time>2011-04-12T00:52:24Z</time>
      </trkpt>
      <trkpt lat="48.76257" lon="6.42111">
        <ele>207</ele>
        <time>2011-04-12T00:52:26Z</time>
      </trkpt>
      <trkpt lat="48.76281" lon="6.42082">
        <ele>207</ele>
        <time>2011-04-12T00:52:30Z</time>
      </trkpt>
      <trkpt lat="48.76304" lon="6.42076">
        <ele>207</ele>
        <time>2011-04-12T00:52:34Z</time>
      </trkpt>
      <trkpt lat="48.76378" lon="6.421">
        <ele>207</ele>
        <time>2011-04-12T00:52:44Z</time>
      </trkpt>
      <trkpt lat="48.76423" lon="6.42108">
        <ele>207</ele>
        <time>2011-04-12T00:52:51Z</time>
      </trkpt>
      <trkpt lat="48.76473" lon="6.42104">
        <ele>208</ele>
        <time>2011-04-12T00:52:59Z</time>
      </trkpt>
      <trkpt lat="48.76499" lon="6.42195">
        <ele>206</ele>
        <time>2011-04-12T00:53:08Z</time>
      </trkpt>
      <trkpt lat="48.76511" lon="6.42208">
        <ele>206</ele>
        <time>2011-04-12T00:53:09Z</time>
      </trkpt>
      <trkpt lat="48.76529" lon="6.42273">
        <ele>205</ele>
        <time>2011-04-12T00:53:16Z</time>
      </trkpt>
      <trkpt lat="48.76568" lon="6.42251">
        <ele>204</ele>
        <time>2011-04-12T00:53:21Z</time>
      </trkpt>
      <trkpt lat="48.76589" lon="6.42229">
        <ele>203</ele>
        <time>2011-04-12T00:53:25Z</time>
      </trkpt>
      <trkpt lat="48.76544" lon="6.42068">
        <ele>202</ele>
        <time>2011-04-12T00:53:40Z</time>
      </trkpt>
      <trkpt lat="48.76541" lon="6.42042">
        <ele>201</ele>
        <time>2011-04-12T00:53:42Z</time>
      </trkpt>
      <trkpt lat="48.76546" lon="6.41905">
        <ele>201</ele>
        <time>2011-04-12T00:53:54Z</time>
      </trkpt>
      <trkpt lat="48.76558" lon="6.41808">
        <ele>199</ele>
        <time>2011-04-12T00:54:03Z</time>
      </trkpt>
      <trkpt lat="48.76587" lon="6.4166">
        <ele>198</ele>
        <time>2011-04-12T00:54:17Z</time>
      </trkpt>
      <trkpt lat="48.76612" lon="6.41565">
        <ele>196</ele>
        <time>2011-04-12T00:54:26Z</time>
      </trkpt>
      <trkpt lat="48.76628" lon="6.41533">
        <ele>196</ele>
        <time>2011-04-12T00:54:29Z</time>
      </trkpt>
      <trkpt lat="48.76641" lon="6.41517">
        <ele>196</ele>
        <time>2011-04-12T00:54:32Z</time>
      </trkpt>
      <trkpt lat="48.76703" lon="6.41451">
        <ele>196</ele>
        <time>2011-04-12T00:54:42Z</time>
      </trkpt>
      <trkpt lat="48.76743" lon="6.4142">
        <ele>196</ele>
        <time>2011-04-12T00:54:49Z</time>
      </trkpt>
      <trkpt lat="48.76934" lon="6.41347">
        <ele>199</ele>
        <time>2011-04-12T00:55:21Z</time>
      </trkpt>
      <trkpt lat="48.77024" lon="6.41307">
        <ele>200</ele>
        <time>2011-04-12T00:55:36Z</time>
      </trkpt>
      <trkpt lat="48.77054" lon="6.41305">
        <ele>200</ele>
        <time>2011-04-12T00:55:40Z</time>
      </trkpt>
      <trkpt lat="48.77151" lon="6.41339">
        <ele>200</ele>
        <time>2011-04-12T00:55:53Z</time>
      </trkpt>
      <trkpt lat="48.77263" lon="6.41346">
        <ele>197</ele>
        <time>2011-04-12T00:56:08Z</time>
      </trkpt>
      <trkpt lat="48.77349" lon="6.41346">
        <ele>196</ele>
        <time>2011-04-12T00:56:20Z</time>
      </trkpt>
      <trkpt lat="48.77417" lon="6.41333">
        <ele>196</ele>
        <time>2011-04-12T00:56:29Z</time>
      </trkpt>
      <trkpt lat="48.77451" lon="6.41319">
        <ele>195</ele>
        <time>2011-04-12T00:56:34Z</time>
      </trkpt>
      <trkpt lat="48.77494" lon="6.41281">
        <ele>195</ele>
        <time>2011-04-12T00:56:40Z</time>
      </trkpt>
      <trkpt lat="48.77581" lon="6.41149">
        <ele>195</ele>
        <time>2011-04-12T00:56:57Z</time>
      </trkpt>
      <trkpt lat="48.77693" lon="6.41007">
        <ele>195</ele>
        <time>2011-04-12T00:57:16Z</time>
      </trkpt>
      <trkpt lat="48.77855" lon="6.40824">
        <ele>196</ele>
        <time>2011-04-12T00:57:46Z</time>
      </trkpt>
      <trkpt lat="48.77946" lon="6.40734">
        <ele>196</ele>
        <time>2011-04-12T00:58:00Z</time>
      </trkpt>
      <trkpt lat="48.78112" lon="6.40644">
        <ele>196</ele>
        <time>2011-04-12T00:58:24Z</time>
      </trkpt>
      <trkpt lat="48.78123" lon="6.40634">
        <ele>196</ele>
        <time>2011-04-12T00:58:27Z</time>
      </trkpt>
      <trkpt lat="48.78129" lon="6.40603">
        <ele>197</ele>
        <time>2011-04-12T00:58:31Z</time>
      </trkpt>
      <trkpt lat="48.78129" lon="6.40455">
        <ele>201</ele>
        <time>2011-04-12T00:58:53Z</time>
      </trkpt>
      <trkpt lat="48.78188" lon="6.40423">
        <ele>202</ele>
        <time>2011-04-12T00:59:05Z</time>
      </trkpt>
      <trkpt lat="48.78244" lon="6.40385">
        <ele>204</ele>
        <time>2011-04-12T00:59:17Z</time>
      </trkpt>
      <trkpt lat="48.78524" lon="6.40131">
        <ele>206</ele>
        <time>2011-04-12T01:00:05Z</time>
      </trkpt>
      <trkpt lat="48.78541" lon="6.4012">
        <ele>206</ele>
        <time>2011-04-12T01:00:09Z</time>
      </trkpt>
      <trkpt lat="48.78606" lon="6.40097">
        <ele>207</ele>
        <time>2011-04-12T01:00:21Z</time>
      </trkpt>
      <trkpt lat="48.78718" lon="6.40073">
        <ele>210</ele>
        <time>2011-04-12T01:00:42Z</time>
      </trkpt>
      <trkpt lat="48.78864" lon="6.40103">
        <ele>212</ele>
        <time>2011-04-12T01:01:06Z</time>
      </trkpt>
      <trkpt lat="48.78983" lon="6.40202">
        <ele>208</ele>
        <time>2011-04-12T01:01:24Z</time>
      </trkpt>
      <trkpt lat="48.79029" lon="6.4022">
        <ele>208</ele>
        <time>2011-04-12T01:01:31Z</time>
      </trkpt>
      <trkpt lat="48.79167" lon="6.40223">
        <ele>208</ele>
        <time>2011-04-12T01:01:49Z</time>
      </trkpt>
      <trkpt lat="48.7928" lon="6.40251">
        <ele>209</ele>
        <time>2011-04-12T01:02:07Z</time>
      </trkpt>
      <trkpt lat="48.79307" lon="6.40262">
        <ele>209</ele>
        <time>2011-04-12T01:02:11Z</time>
      </trkpt>
      <trkpt lat="48.79365" lon="6.40308">
        <ele>210</ele>
        <time>2011-04-12T01:02:22Z</time>
      </trkpt>
      <trkpt lat="48.79457" lon="6.40402">
        <ele>208</ele>
        <time>2011-04-12T01:02:36Z</time>
      </trkpt>
      <trkpt lat="48.79493" lon="6.40427">
        <ele>208</ele>
        <time>2011-04-12T01:02:43Z</time>
      </trkpt>
      <trkpt lat="48.79504" lon="6.40429">
        <ele>208</ele>
        <time>2011-04-12T01:02:45Z</time>
      </trkpt>
      <trkpt lat="48.79522" lon="6.40417">
        <ele>208</ele>
        <time>2011-04-12T01:02:48Z</time>
      </trkpt>
      <trkpt lat="48.79571" lon="6.40335">
        <ele>210</ele>
        <time>2011-04-12T01:03:00Z</time>
      </trkpt>
      <trkpt lat="48.79639" lon="6.40169">
        <ele>215</ele>
        <time>2011-04-12T01:03:29Z</time>
      </trkpt>
      <trkpt lat="48.79652" lon="6.40155">
        <ele>215</ele>
        <time>2011-04-12T01:03:32Z</time>
      </trkpt>
      <trkpt lat="48.79676" lon="6.40161">
        <ele>215</ele>
        <time>2011-04-12T01:03:36Z</time>
      </trkpt>
      <trkpt lat="48.79726" lon="6.40199">
        <ele>215</ele>
        <time>2011-04-12T01:03:45Z</time>
      </trkpt>
      <trkpt lat="48.79731" lon="6.4021">
        <ele>216</ele>
        <time>2011-04-12T01:03:46Z</time>
      </trkpt>
      <trkpt lat="48.79735" lon="6.40235">
        <ele>216</ele>
        <time>2011-04-12T01:03:49Z</time>
      </trkpt>
      <trkpt lat="48.79731" lon="6.40254">
        <ele>216</ele>
        <time>2011-04-12T01:03:51Z</time>
      </trkpt>
      <trkpt lat="48.79714" lon="6.40295">
        <ele>217</ele>
        <time>2011-04-12T01:03:57Z</time>
      </trkpt>
      <trkpt lat="48.79711" lon="6.40311">
        <ele>217</ele>
        <time>2011-04-12T01:03:59Z</time>
      </trkpt>
      <trkpt lat="48.79711" lon="6.40353">
        <ele>218</ele>
        <time>2011-04-12T01:04:04Z</time>
      </trkpt>
      <trkpt lat="48.79721" lon="6.40388">
        <ele>219</ele>
        <time>2011-04-12T01:04:11Z</time>
      </trkpt>
      <trkpt lat="48.79745" lon="6.40441">
        <ele>221</ele>
        <time>2011-04-12T01:04:23Z</time>
      </trkpt>
      <trkpt lat="48.79757" lon="6.40462">
        <ele>223</ele>
        <time>2011-04-12T01:04:28Z</time>
      </trkpt>
      <trkpt lat="48.79799" lon="6.40507">
        <ele>226</ele>
        <time>2011-04-12T01:04:42Z</time>
      </trkpt>
      <trkpt lat="48.79864" lon="6.40549">
        <ele>230</ele>
        <time>2011-04-12T01:05:01Z</time>
      </trkpt>
      <trkpt lat="48.79864" lon="6.40549">
        <ele>230</ele>
        <time>2011-04-12T01:05:02Z</time>
      </trkpt>
      <trkpt lat="48.79968" lon="6.40578">
        <ele>235</ele>
        <time>2011-04-12T01:05:28Z</time>
      </trkpt>
      <trkpt lat="48.80008" lon="6.40606">
        <ele>239</ele>
        <time>2011-04-12T01:05:44Z</time>
      </trkpt>
      <trkpt lat="48.80038" lon="6.40614">
        <ele>241</ele>
        <time>2011-04-12T01:05:54Z</time>
      </trkpt>
      <trkpt lat="48.80054" lon="6.40612">
        <ele>243</ele>
        <time>2011-04-12T01:06:00Z</time>
      </trkpt>
      <trkpt lat="48.8018" lon="6.40502">
        <ele>257</ele>
        <time>2011-04-12T01:06:52Z</time>
      </trkpt>
      <trkpt lat="48.80203" lon="6.40489">
        <ele>258</ele>
        <time>2011-04-12T01:06:58Z</time>
      </trkpt>
      <trkpt lat="48.80226" lon="6.40489">
        <ele>259</ele>
        <time>2011-04-12T01:07:04Z</time>
      </trkpt>
      <trkpt lat="48.8028" lon="6.40506">
        <ele>262</ele>
        <time>2011-04-12T01:07:18Z</time>
      </trkpt>
      <trkpt lat="48.80308" lon="6.40501">
        <ele>263</ele>
        <time>2011-04-12T01:07:25Z</time>
      </trkpt>
      <trkpt lat="48.80343" lon="6.40486">
        <ele>264</ele>
        <time>2011-04-12T01:07:34Z</time>
      </trkpt>
      <trkpt lat="48.80459" lon="6.40329">
        <ele>272</ele>
        <time>2011-04-12T01:08:11Z</time>
      </trkpt>
      <trkpt lat="48.80487" lon="6.40276">
        <ele>270</ele>
        <time>2011-04-12T01:08:17Z</time>
      </trkpt>
      <trkpt lat="48.80529" lon="6.40158">
        <ele>269</ele>
        <time>2011-04-12T01:08:29Z</time>
      </trkpt>
      <trkpt lat="48.80562" lon="6.40045">
        <ele>265</ele>
        <time>2011-04-12T01:08:40Z</time>
      </trkpt>
      <trkpt lat="48.80598" lon="6.39987">
        <ele>263</ele>
        <time>2011-04-12T01:08:47Z</time>
      </trkpt>
      <trkpt lat="48.80636" lon="6.39893">
        <ele>265</ele>
        <time>2011-04-12T01:09:03Z</time>
      </trkpt>
      <trkpt lat="48.80659" lon="6.39766">
        <ele>269</ele>
        <time>2011-04-12T01:09:23Z</time>
      </trkpt>
      <trkpt lat="48.80706" lon="6.39569">
        <ele>276</ele>
        <time>2011-04-12T01:09:58Z</time>
      </trkpt>
      <trkpt lat="48.80711" lon="6.3953">
        <ele>276</ele>
        <time>2011-04-12T01:10:04Z</time>
      </trkpt>
      <trkpt lat="48.8071" lon="6.39515">
        <ele>277</ele>
        <time>2011-04-12T01:10:06Z</time>
      </trkpt>
      <trkpt lat="48.80705" lon="6.39504">
        <ele>277</ele>
        <time>2011-04-12T01:10:08Z</time>
      </trkpt>
      <trkpt lat="48.80627" lon="6.39367">
        <ele>282</ele>
        <time>2011-04-12T01:10:34Z</time>
      </trkpt>
      <trkpt lat="48.80612" lon="6.3933">
        <ele>282</ele>
        <time>2011-04-12T01:10:40Z</time>
      </trkpt>
      <trkpt lat="48.80472" lon="6.3894">
        <ele>290</ele>
        <time>2011-04-12T01:11:36Z</time>
      </trkpt>
      <trkpt lat="48.80456" lon="6.38873">
        <ele>288</ele>
        <time>2011-04-12T01:11:43Z</time>
      </trkpt>
      <trkpt lat="48.80401" lon="6.38524">
        <ele>278</ele>
        <time>2011-04-12T01:12:14Z</time>
      </trkpt>
      <trkpt lat="48.80361" lon="6.38384">
        <ele>272</ele>
        <time>2011-04-12T01:12:28Z</time>
      </trkpt>
      <trkpt lat="48.80328" lon="6.38286">
        <ele>270</ele>
        <time>2011-04-12T01:12:37Z</time>
      </trkpt>
      <trkpt lat="48.80159" lon="6.37963">
        <ele>263</ele>
        <time>2011-04-12T01:13:14Z</time>
      </trkpt>
      <trkpt lat="48.80095" lon="6.37783">
        <ele>261</ele>
        <time>2011-04-12T01:13:32Z</time>
      </trkpt>
      <trkpt lat="48.80079" lon="6.37731">
        <ele>259</ele>
        <time>2011-04-12T01:13:37Z</time>
      </trkpt>
      <trkpt lat="48.80073" lon="6.37697">
        <ele>258</ele>
        <time>2011-04-12T01:13:40Z</time>
      </trkpt>
      <trkpt lat="48.80077" lon="6.37659">
        <ele>256</ele>
        <time>2011-04-12T01:13:43Z</time>
      </trkpt>
      <trkpt lat="48.80084" lon="6.3763">
        <ele>256</ele>
        <time>2011-04-12T01:13:46Z</time>
      </trkpt>
      <trkpt lat="48.80093" lon="6.37611">
        <ele>255</ele>
        <time>2011-04-12T01:13:48Z</time>
      </trkpt>
      <trkpt lat="48.80005" lon="6.374">
        <ele>251</ele>
        <time>2011-04-12T01:14:10Z</time>
      </trkpt>
      <trkpt lat="48.79844" lon="6.37079">
        <ele>241</ele>
        <time>2011-04-12T01:14:45Z</time>
      </trkpt>
      <trkpt lat="48.79796" lon="6.36978">
        <ele>237</ele>
        <time>2011-04-12T01:14:56Z</time>
      </trkpt>
      <trkpt lat="48.79765" lon="6.36902">
        <ele>235</ele>
        <time>2011-04-12T01:15:04Z</time>
      </trkpt>
      <trkpt lat="48.79584" lon="6.36539">
        <ele>222</ele>
        <time>2011-04-12T01:15:44Z</time>
      </trkpt>
      <trkpt lat="48.79584" lon="6.36539">
        <ele>222</ele>
        <time>2011-04-12T01:15:45Z</time>
      </trkpt>
      <trkpt lat="48.79536" lon="6.36438">
        <ele>220</ele>
        <time>2011-04-12T01:15:56Z</time>
      </trkpt>
      <trkpt lat="48.79517" lon="6.36381">
        <ele>220</ele>
        <time>2011-04-12T01:16:02Z</time>
      </trkpt>
      <trkpt lat="48.79418" lon="6.36032">
        <ele>205</ele>
        <time>2011-04-12T01:16:35Z</time>
      </trkpt>
      <trkpt lat="48.79406" lon="6.36005">
        <ele>203</ele>
        <time>2011-04-12T01:16:38Z</time>
      </trkpt>
      <trkpt lat="48.79384" lon="6.35978">
        <ele>202</ele>
        <time>2011-04-12T01:16:42Z</time>
      </trkpt>
      <trkpt lat="48.79373" lon="6.35957">
        <ele>201</ele>
        <time>2011-04-12T01:16:44Z</time>
      </trkpt>
      <trkpt lat="48.79308" lon="6.35961">
        <ele>198</ele>
        <time>2011-04-12T01:16:53Z</time>
      </trkpt>
      <trkpt lat="48.79303" lon="6.35958">
        <ele>198</ele>
        <time>2011-04-12T01:16:54Z</time>
      </trkpt>
      <trkpt lat="48.79233" lon="6.35966">
        <ele>198</ele>
        <time>2011-04-12T01:17:03Z</time>
      </trkpt>
      <trkpt lat="48.79147" lon="6.35983">
        <ele>198</ele>
        <time>2011-04-12T01:17:15Z</time>
      </trkpt>
      <trkpt lat="48.79133" lon="6.35981">
        <ele>197</ele>
        <time>2011-04-12T01:17:17Z</time>
      </trkpt>
      <trkpt lat="48.79119" lon="6.35962">
        <ele>197</ele>
        <time>2011-04-12T01:17:19Z</time>
      </trkpt>
      <trkpt lat="48.79045" lon="6.35828">
        <ele>195</ele>
        <time>2011-04-12T01:17:34Z</time>
      </trkpt>
      <trkpt lat="48.79029" lon="6.3581">
        <ele>194</ele>
        <time>2011-04-12T01:17:37Z</time>
      </trkpt>
      <trkpt lat="48.78962" lon="6.35762">
        <ele>194</ele>
        <time>2011-04-12T01:17:47Z</time>
      </trkpt>
      <trkpt lat="48.78883" lon="6.35722">
        <ele>194</ele>
        <time>2011-04-12T01:18:00Z</time>
      </trkpt>
      <trkpt lat="48.78845" lon="6.35708">
        <ele>195</ele>
        <time>2011-04-12T01:18:06Z</time>
      </trkpt>
      <trkpt lat="48.78717" lon="6.35689">
        <ele>197</ele>
        <time>2011-04-12T01:18:28Z</time>
      </trkpt>
      <trkpt lat="48.78602" lon="6.35691">
        <ele>198</ele>
        <time>2011-04-12T01:18:45Z</time>
      </trkpt>
      <trkpt lat="48.78495" lon="6.35714">
        <ele>199</ele>
        <time>2011-04-12T01:19:02Z</time>
      </trkpt>
      <trkpt lat="48.7836" lon="6.3573">
        <ele>198</ele>
        <time>2011-04-12T01:19:20Z</time>
      </trkpt>
      <trkpt lat="48.7829" lon="6.35732">
        <ele>196</ele>
        <time>2011-04-12T01:19:30Z</time>
      </trkpt>
      <trkpt lat="48.78275" lon="6.35712">
        <ele>195</ele>
        <time>2011-04-12T01:19:32Z</time>
      </trkpt>
      <trkpt lat="48.78269" lon="6.35688">
        <ele>195</ele>
        <time>2011-04-12T01:19:35Z</time>
      </trkpt>
      <trkpt lat="48.78268" lon="6.3566">
        <ele>195</ele>
        <time>2011-04-12T01:19:37Z</time>
      </trkpt>
      <trkpt lat="48.78278" lon="6.35528">
        <ele>195</ele>
        <time>2011-04-12T01:19:49Z</time>
      </trkpt>
      <trkpt lat="48.78262" lon="6.35422">
        <ele>195</ele>
        <time>2011-04-12T01:20:00Z</time>
      </trkpt>
      <trkpt lat="48.78054" lon="6.355">
        <ele>197</ele>
        <time>2011-04-12T01:20:32Z</time>
      </trkpt>
      <trkpt lat="48.77979" lon="6.35547">
        <ele>197</ele>
        <time>2011-04-12T01:20:43Z</time>
      </trkpt>
      <trkpt lat="48.77816" lon="6.35634">
        <ele>198</ele>
        <time>2011-04-12T01:21:08Z</time>
      </trkpt>
      <trkpt lat="48.77801" lon="6.35647">
        <ele>197</ele>
        <time>2011-04-12T01:21:10Z</time>
      </trkpt>
      <trkpt lat="48.77783" lon="6.35676">
        <ele>197</ele>
        <time>2011-04-12T01:21:14Z</time>
      </trkpt>
      <trkpt lat="48.77766" lon="6.35759">
        <ele>196</ele>
        <time>2011-04-12T01:21:22Z</time>
      </trkpt>
      <trkpt lat="48.7775" lon="6.35787">
        <ele>196</ele>
        <time>2011-04-12T01:21:25Z</time>
      </trkpt>
      <trkpt lat="48.77686" lon="6.35861">
        <ele>196</ele>
        <time>2011-04-12T01:21:36Z</time>
      </trkpt>
      <trkpt lat="48.77583" lon="6.36005">
        <ele>196</ele>
        <time>2011-04-12T01:21:54Z</time>
      </trkpt>
      <trkpt lat="48.77531" lon="6.361">
        <ele>196</ele>
        <time>2011-04-12T01:22:05Z</time>
      </trkpt>
      <trkpt lat="48.77493" lon="6.36192">
        <ele>196</ele>
        <time>2011-04-12T01:22:15Z</time>
      </trkpt>
      <trkpt lat="48.77473" lon="6.36226">
        <ele>196</ele>
        <time>2011-04-12T01:22:20Z</time>
      </trkpt>
      <trkpt lat="48.77462" lon="6.36231">
        <ele>196</ele>
        <time>2011-04-12T01:22:22Z</time>
      </trkpt>
      <trkpt lat="48.77435" lon="6.36218">
        <ele>197</ele>
        <time>2011-04-12T01:22:27Z</time>
      </trkpt>
      <trkpt lat="48.77359" lon="6.36162">
        <ele>199</ele>
        <time>2011-04-12T01:22:43Z</time>
      </trkpt>
      <trkpt lat="48.7734" lon="6.36157">
        <ele>199</ele>
        <time>2011-04-12T01:22:47Z</time>
      </trkpt>
      <trkpt lat="48.77324" lon="6.36158">
        <ele>200</ele>
        <time>2011-04-12T01:22:51Z</time>
      </trkpt>
      <trkpt lat="48.7729" lon="6.36188">
        <ele>202</ele>
        <time>2011-04-12T01:23:01Z</time>
      </trkpt>
      <trkpt lat="48.77224" lon="6.36221">
        <ele>206</ele>
        <time>2011-04-12T01:23:19Z</time>
      </trkpt>
      <trkpt lat="48.77211" lon="6.36223">
        <ele>207</ele>
        <time>2011-04-12T01:23:24Z</time>
      </trkpt>
      <trkpt lat="48.77199" lon="6.3622">
        <ele>208</ele>
        <time>2011-04-12T01:23:29Z</time>
      </trkpt>
      <trkpt lat="48.77189" lon="6.36211">
        <ele>210</ele>
        <time>2011-04-12T01:23:34Z</time>
      </trkpt>
      <trkpt lat="48.77148" lon="6.36161">
        <ele>216</ele>
        <time>2011-04-12T01:23:56Z</time>
      </trkpt>
      <trkpt lat="48.7712" lon="6.36146">
        <ele>220</ele>
        <time>2011-04-12T01:24:08Z</time>
      </trkpt>
      <trkpt lat="48.77093" lon="6.36148">
        <ele>222</ele>
        <time>2011-04-12T01:24:17Z</time>
      </trkpt>
      <trkpt lat="48.77035" lon="6.3618">
        <ele>226</ele>
        <time>2011-04-12T01:24:37Z</time>
      </trkpt>
      <trkpt lat="48.77021" lon="6.36183">
        <ele>228</ele>
        <time>2011-04-12T01:24:41Z</time>
      </trkpt>
      <trkpt lat="48.76875" lon="6.36169">
        <ele>236</ele>
        <time>2011-04-12T01:25:20Z</time>
      </trkpt>
      <trkpt lat="48.76852" lon="6.36173">
        <ele>236</ele>
        <time>2011-04-12T01:25:24Z</time>
      </trkpt>
      <trkpt lat="48.76832" lon="6.36183">
        <ele>236</ele>
        <time>2011-04-12T01:25:27Z</time>
      </trkpt>
      <trkpt lat="48.76704" lon="6.36275">
        <ele>239</ele>
        <time>2011-04-12T01:25:52Z</time>
      </trkpt>
      <trkpt lat="48.76633" lon="6.36309">
        <ele>239</ele>
        <time>2011-04-12T01:26:03Z</time>
      </trkpt>
      <trkpt lat="48.76474" lon="6.3631">
        <ele>240</ele>
        <time>2011-04-12T01:26:25Z</time>
      </trkpt>
      <trkpt lat="48.76403" lon="6.36329">
        <ele>240</ele>
        <time>2011-04-12T01:26:36Z</time>
      </trkpt>
      <trkpt lat="48.76327" lon="6.36329">
        <ele>241</ele>
        <time>2011-04-12T01:26:48Z</time>
      </trkpt>
      <trkpt lat="48.762" lon="6.36347">
        <ele>246</ele>
        <time>2011-04-12T01:27:17Z</time>
      </trkpt>
      <trkpt lat="48.76156" lon="6.36358">
        <ele>246</ele>
        <time>2011-04-12T01:27:23Z</time>
      </trkpt>
      <trkpt lat="48.76104" lon="6.3639">
        <ele>246</ele>
        <time>2011-04-12T01:27:30Z</time>
      </trkpt>
      <trkpt lat="48.76021" lon="6.36468">
        <ele>246</ele>
        <time>2011-04-12T01:27:43Z</time>
      </trkpt>
      <trkpt lat="48.75933" lon="6.36531">
        <ele>244</ele>
        <time>2011-04-12T01:27:56Z</time>
      </trkpt>
      <trkpt lat="48.75816" lon="6.36604">
        <ele>240</ele>
        <time>2011-04-12T01:28:13Z</time>
      </trkpt>
      <trkpt lat="48.75771" lon="6.36613">
        <ele>240</ele>
        <time>2011-04-12T01:28:21Z</time>
      </trkpt>
      <trkpt lat="48.75749" lon="6.36626">
        <ele>241</ele>
        <time>2011-04-12T01:28:25Z</time>
      </trkpt>
      <trkpt lat="48.75714" lon="6.3666">
        <ele>242</ele>
        <time>2011-04-12T01:28:33Z</time>
      </trkpt>
      <trkpt lat="48.75675" lon="6.36715">
        <ele>242</ele>
        <time>2011-04-12T01:28:42Z</time>
      </trkpt>
      <trkpt lat="48.75568" lon="6.3689">
        <ele>245</ele>
        <time>2011-04-12T01:29:08Z</time>
      </trkpt>
      <trkpt lat="48.75538" lon="6.36925">
        <ele>243</ele>
        <time>2011-04-12T01:29:13Z</time>
      </trkpt>
      <trkpt lat="48.75505" lon="6.3695">
        <ele>243</ele>
        <time>2011-04-12T01:29:18Z</time>
      </trkpt>
      <trkpt lat="48.75505" lon="6.3695">
        <ele>243</ele>
        <time>2011-04-12T01:29:19Z</time>
      </trkpt>
      <trkpt lat="48.75418" lon="6.36991">
        <ele>241</ele>
        <time>2011-04-12T01:29:31Z</time>
      </trkpt>
      <trkpt lat="48.75347" lon="6.37013">
        <ele>239</ele>
        <time>2011-04-12T01:29:41Z</time>
      </trkpt>
      <trkpt lat="48.75312" lon="6.37036">
        <ele>239</ele>
        <time>2011-04-12T01:29:46Z</time>
      </trkpt>
      <trkpt lat="48.75283" lon="6.37076">
        <ele>240</ele>
        <time>2011-04-12T01:29:56Z</time>
      </trkpt>
      <trkpt lat="48.75232" lon="6.37186">
        <ele>245</ele>
        <time>2011-04-12T01:30:17Z</time>
      </trkpt>
      <trkpt lat="48.75203" lon="6.37189">
        <ele>245</ele>
        <time>2011-04-12T01:30:22Z</time>
      </trkpt>
      <trkpt lat="48.75085" lon="6.37048">
        <ele>247</ele>
        <time>2011-04-12T01:30:46Z</time>
      </trkpt>
      <trkpt lat="48.75056" lon="6.37024">
        <ele>247</ele>
        <time>2011-04-12T01:30:51Z</time>
      </trkpt>
      <trkpt lat="48.74958" lon="6.36916">
        <ele>247</ele>
        <time>2011-04-12T01:31:07Z</time>
      </trkpt>
      <trkpt lat="48.74688" lon="6.366">
        <ele>255</ele>
        <time>2011-04-12T01:32:12Z</time>
      </trkpt>
      <trkpt lat="48.74634" lon="6.36524">
        <ele>254</ele>
        <time>2011-04-12T01:32:21Z</time>
      </trkpt>
      <trkpt lat="48.74625" lon="6.365">
        <ele>254</ele>
        <time>2011-04-12T01:32:24Z</time>
      </trkpt>
      <trkpt lat="48.74537" lon="6.36171">
        <ele>247</ele>
        <time>2011-04-12T01:32:55Z</time>
      </trkpt>
      <trkpt lat="48.74257" lon="6.35111">
        <ele>226</ele>
        <time>2011-04-12T01:34:36Z</time>
      </trkpt>
      <trkpt lat="48.74204" lon="6.35016">
        <ele>227</ele>
        <time>2011-04-12T01:34:51Z</time>
      </trkpt>
      <trkpt lat="48.74118" lon="6.3511">
        <ele>230</ele>
        <time>2011-04-12T01:35:10Z</time>
      </trkpt>
      <trkpt lat="48.74099" lon="6.35141">
        <ele>230</ele>
        <time>2011-04-12T01:35:16Z</time>
      </trkpt>
      <trkpt lat="48.73989" lon="6.34931">
        <ele>237</ele>
        <time>2011-04-12T01:35:55Z</time>
      </trkpt>
      <trkpt lat="48.73902" lon="6.34781">
        <ele>238</ele>
        <time>2011-04-12T01:36:15Z</time>
      </trkpt>
      <trkpt lat="48.7388" lon="6.34753">
        <ele>237</ele>
        <time>2011-04-12T01:36:18Z</time>
      </trkpt>
      <trkpt lat="48.7387" lon="6.34749">
        <ele>237</ele>
        <time>2011-04-12T01:36:20Z</time>
      </trkpt>
      <trkpt lat="48.73861" lon="6.34752">
        <ele>237</ele>
        <time>2011-04-12T01:36:21Z</time>
      </trkpt>
      <trkpt lat="48.73778" lon="6.34849">
        <ele>237</ele>
        <time>2011-04-12T01:36:35Z</time>
      </trkpt>
      <trkpt lat="48.73738" lon="6.34882">
        <ele>236</ele>
        <time>2011-04-12T01:36:41Z</time>
      </trkpt>
      <trkpt lat="48.7367" lon="6.34801">
        <ele>236</ele>
        <time>2011-04-12T01:36:53Z</time>
      </trkpt>
      <trkpt lat="48.7358" lon="6.34713">
        <ele>240</ele>
        <time>2011-04-12T01:37:17Z</time>
      </trkpt>
      <trkpt lat="48.73485" lon="6.34637">
        <ele>243</ele>
        <time>2011-04-12T01:37:38Z</time>
      </trkpt>
      <trkpt lat="48.73256" lon="6.34483">
        <ele>251</ele>
        <time>2011-04-12T01:38:31Z</time>
      </trkpt>
      <trkpt lat="48.73163" lon="6.34407">
        <ele>248</ele>
        <time>2011-04-12T01:38:45Z</time>
      </trkpt>
      <trkpt lat="48.72951" lon="6.34218">
        <ele>242</ele>
        <time>2011-04-12T01:39:18Z</time>
      </trkpt>
      <trkpt lat="48.72767" lon="6.34038">
        <ele>237</ele>
        <time>2011-04-12T01:39:47Z</time>
      </trkpt>
      <trkpt lat="48.72657" lon="6.33917">
        <ele>233</ele>
        <time>2011-04-12T01:40:05Z</time>
      </trkpt>
      <trkpt lat="48.72422" lon="6.33644">
        <ele>226</ele>
        <time>2011-04-12T01:40:45Z</time>
      </trkpt>
      <trkpt lat="48.7235" lon="6.33553">
        <ele>224</ele>
        <time>2011-04-12T01:40:57Z</time>
      </trkpt>
      <trkpt lat="48.72316" lon="6.33484">
        <ele>224</ele>
        <time>2011-04-12T01:41:05Z</time>
      </trkpt>
      <trkpt lat="48.72291" lon="6.33408">
        <ele>224</ele>
        <time>2011-04-12T01:41:12Z</time>
      </trkpt>
      <trkpt lat="48.72231" lon="6.33321">
        <ele>226</ele>
        <time>2011-04-12T01:41:29Z</time>
      </trkpt>
      <trkpt lat="48.72192" lon="6.33254">
        <ele>228</ele>
        <time>2011-04-12T01:41:41Z</time>
      </trkpt>
      <trkpt lat="48.72182" lon="6.33235">
        <ele>228</ele>
        <time>2011-04-12T01:41:44Z</time>
      </trkpt>
      <trkpt lat="48.72152" lon="6.3315">
        <ele>229</ele>
        <time>2011-04-12T01:41:56Z</time>
      </trkpt>
      <trkpt lat="48.72128" lon="6.331">
        <ele>231</ele>
        <time>2011-04-12T01:42:04Z</time>
      </trkpt>
      <trkpt lat="48.72034" lon="6.32923">
        <ele>234</ele>
        <time>2011-04-12T01:42:31Z</time>
      </trkpt>
      <trkpt lat="48.71956" lon="6.32792">
        <ele>235</ele>
        <time>2011-04-12T01:42:49Z</time>
      </trkpt>
      <trkpt lat="48.71897" lon="6.32711">
        <ele>235</ele>
        <time>2011-04-12T01:43:01Z</time>
      </trkpt>
      <trkpt lat="48.71774" lon="6.32582">
        <ele>236</ele>
        <time>2011-04-12T01:43:22Z</time>
      </trkpt>
      <trkpt lat="48.71582" lon="6.3243">
        <ele>238</ele>
        <time>2011-04-12T01:43:56Z</time>
      </trkpt>
      <trkpt lat="48.71546" lon="6.32397">
        <ele>239</ele>
        <time>2011-04-12T01:44:04Z</time>
      </trkpt>
      <trkpt lat="48.71495" lon="6.32338">
        <ele>241</ele>
        <time>2011-04-12T01:44:17Z</time>
      </trkpt>
      <trkpt lat="48.71495" lon="6.32338">
        <ele>241</ele>
        <time>2011-04-12T01:44:18Z</time>
      </trkpt>
      <trkpt lat="48.71414" lon="6.32244">
        <ele>243</ele>
        <time>2011-04-12T01:44:37Z</time>
      </trkpt>
      <trkpt lat="48.71389" lon="6.3222">
        <ele>243</ele>
        <time>2011-04-12T01:44:42Z</time>
      </trkpt>
      <trkpt lat="48.71378" lon="6.32215">
        <ele>243</ele>
        <time>2011-04-12T01:44:43Z</time>
      </trkpt>
      <trkpt lat="48.71366" lon="6.32251">
        <ele>243</ele>
        <time>2011-04-12T01:44:48Z</time>
      </trkpt>
      <trkpt lat="48.71338" lon="6.32286">
        <ele>244</ele>
        <time>2011-04-12T01:44:54Z</time>
      </trkpt>
      <trkpt lat="48.71213" lon="6.32416">
        <ele>246</ele>
        <time>2011-04-12T01:45:18Z</time>
      </trkpt>
      <trkpt lat="48.71096" lon="6.32574">
        <ele>256</ele>
        <time>2011-04-12T01:46:03Z</time>
      </trkpt>
      <trkpt lat="48.71006" lon="6.32676">
        <ele>262</ele>
        <time>2011-04-12T01:46:33Z</time>
      </trkpt>
      <trkpt lat="48.70995" lon="6.32694">
        <ele>262</ele>
        <time>2011-04-12T01:46:36Z</time>
      </trkpt>
      <trkpt lat="48.70946" lon="6.32824">
        <ele>265</ele>
        <time>2011-04-12T01:46:55Z</time>
      </trkpt>
      <trkpt lat="48.70821" lon="6.33112">
        <ele>258</ele>
        <time>2011-04-12T01:47:25Z</time>
      </trkpt>
      <trkpt lat="48.70764" lon="6.33223">
        <ele>256</ele>
        <time>2011-04-12T01:47:38Z</time>
      </trkpt>
      <trkpt lat="48.70687" lon="6.33353">
        <ele>253</ele>
        <time>2011-04-12T01:47:53Z</time>
      </trkpt>
      <trkpt lat="48.70614" lon="6.33454">
        <ele>252</ele>
        <time>2011-04-12T01:48:06Z</time>
      </trkpt>
      <trkpt lat="48.70532" lon="6.33549">
        <ele>249</ele>
        <time>2011-04-12T01:48:20Z</time>
      </trkpt>
      <trkpt lat="48.70405" lon="6.3368">
        <ele>246</ele>
        <time>2011-04-12T01:48:41Z</time>
      </trkpt>
      <trkpt lat="48.7038" lon="6.33721">
        <ele>245</ele>
        <time>2011-04-12T01:48:46Z</time>
      </trkpt>
      <trkpt lat="48.70329" lon="6.33824">
        <ele>245</ele>
        <time>2011-04-12T01:48:57Z</time>
      </trkpt>
      <trkpt lat="48.70288" lon="6.33893">
        <ele>245</ele>
        <time>2011-04-12T01:49:05Z</time>
      </trkpt>
      <trkpt lat="48.70217" lon="6.33972">
        <ele>245</ele>
        <time>2011-04-12T01:49:17Z</time>
      </trkpt>
      <trkpt lat="48.70183" lon="6.33998">
        <ele>245</ele>
        <time>2011-04-12T01:49:22Z</time>
      </trkpt>
      <trkpt lat="48.70092" lon="6.34044">
        <ele>245</ele>
        <time>2011-04-12T01:49:35Z</time>
      </trkpt>
      <trkpt lat="48.69928" lon="6.34097">
        <ele>242</ele>
        <time>2011-04-12T01:49:57Z</time>
      </trkpt>
      <trkpt lat="48.69574" lon="6.34201">
        <ele>237</ele>
        <time>2011-04-12T01:50:45Z</time>
      </trkpt>
      <trkpt lat="48.69302" lon="6.34289">
        <ele>233</ele>
        <time>2011-04-12T01:51:23Z</time>
      </trkpt>
      <trkpt lat="48.6929" lon="6.34295">
        <ele>232</ele>
        <time>2011-04-12T01:51:24Z</time>
      </trkpt>
      <trkpt lat="48.69265" lon="6.34328">
        <ele>231</ele>
        <time>2011-04-12T01:51:29Z</time>
      </trkpt>
      <trkpt lat="48.6925" lon="6.34343">
        <ele>231</ele>
        <time>2011-04-12T01:51:31Z</time>
      </trkpt>
      <trkpt lat="48.69222" lon="6.34345">
        <ele>230</ele>
        <time>2011-04-12T01:51:35Z</time>
      </trkpt>
      <trkpt lat="48.69167" lon="6.34335">
        <ele>229</ele>
        <time>2011-04-12T01:51:42Z</time>
      </trkpt>
      <trkpt lat="48.69144" lon="6.34324">
        <ele>230</ele>
        <time>2011-04-12T01:51:50Z</time>
      </trkpt>
      <trkpt lat="48.69088" lon="6.34277">
        <ele>235</ele>
        <time>2011-04-12T01:52:09Z</time>
      </trkpt>
      <trkpt lat="48.69019" lon="6.34205">
        <ele>241</ele>
        <time>2011-04-12T01:52:34Z</time>
      </trkpt>
      <trkpt lat="48.68996" lon="6.34192">
        <ele>241</ele>
        <time>2011-04-12T01:52:37Z</time>
      </trkpt>
      <trkpt lat="48.68871" lon="6.34167">
        <ele>241</ele>
        <time>2011-04-12T01:52:54Z</time>
      </trkpt>
      <trkpt lat="48.68835" lon="6.34164">
        <ele>239</ele>
        <time>2011-04-12T01:52:59Z</time>
      </trkpt>
      <trkpt lat="48.68793" lon="6.34168">
        <ele>237</ele>
        <time>2011-04-12T01:53:05Z</time>
      </trkpt>
      <trkpt lat="48.68752" lon="6.34204">
        <ele>235</ele>
        <time>2011-04-12T01:53:11Z</time>
      </trkpt>
      <trkpt lat="48.68699" lon="6.34308">
        <ele>232</ele>
        <time>2011-04-12T01:53:23Z</time>
      </trkpt>
      <trkpt lat="48.6867" lon="6.34373">
        <ele>231</ele>
        <time>2011-04-12T01:53:29Z</time>
      </trkpt>
      <trkpt lat="48.68643" lon="6.34445">
        <ele>230</ele>
        <time>2011-04-12T01:53:37Z</time>
      </trkpt>
      <trkpt lat="48.68602" lon="6.34576">
        <ele>230</ele>
        <time>2011-04-12T01:53:50Z</time>
      </trkpt>
      <trkpt lat="48.68582" lon="6.34629">
        <ele>229</ele>
        <time>2011-04-12T01:53:55Z</time>
      </trkpt>
      <trkpt lat="48.6857" lon="6.34651">
        <ele>229</ele>
        <time>2011-04-12T01:53:57Z</time>
      </trkpt>
      <trkpt lat="48.68481" lon="6.34779">
        <ele>227</ele>
        <time>2011-04-12T01:54:14Z</time>
      </trkpt>
      <trkpt lat="48.68417" lon="6.3485">
        <ele>225</ele>
        <time>2011-04-12T01:54:24Z</time>
      </trkpt>
      <trkpt lat="48.68417" lon="6.3485">
        <ele>225</ele>
        <time>2011-04-12T01:54:25Z</time>
      </trkpt>
      <trkpt lat="48.68366" lon="6.34907">
        <ele>224</ele>
        <time>2011-04-12T01:54:34Z</time>
      </trkpt>
      <trkpt lat="48.68333" lon="6.34935">
        <ele>224</ele>
        <time>2011-04-12T01:54:39Z</time>
      </trkpt>
      <trkpt lat="48.68293" lon="6.34963">
        <ele>224</ele>
        <time>2011-04-12T01:54:46Z</time>
      </trkpt>
      <trkpt lat="48.68253" lon="6.3497">
        <ele>224</ele>
        <time>2011-04-12T01:54:52Z</time>
      </trkpt>
      <trkpt lat="48.68204" lon="6.35008">
        <ele>225</ele>
        <time>2011-04-12T01:55:00Z</time>
      </trkpt>
      <trkpt lat="48.68181" lon="6.34927">
        <ele>223</ele>
        <time>2011-04-12T01:55:08Z</time>
      </trkpt>
      <trkpt lat="48.68146" lon="6.34868">
        <ele>223</ele>
        <time>2011-04-12T01:55:15Z</time>
      </trkpt>
      <trkpt lat="48.68069" lon="6.34769">
        <ele>220</ele>
        <time>2011-04-12T01:55:28Z</time>
      </trkpt>
      <trkpt lat="48.68009" lon="6.34709">
        <ele>218</ele>
        <time>2011-04-12T01:55:38Z</time>
      </trkpt>
      <trkpt lat="48.67977" lon="6.34687">
        <ele>218</ele>
        <time>2011-04-12T01:55:43Z</time>
      </trkpt>
      <trkpt lat="48.67938" lon="6.34673">
        <ele>218</ele>
        <time>2011-04-12T01:55:50Z</time>
      </trkpt>
      <trkpt lat="48.67829" lon="6.34668">
        <ele>221</ele>
        <time>2011-04-12T01:56:10Z</time>
      </trkpt>
      <trkpt lat="48.678" lon="6.34662">
        <ele>220</ele>
        <time>2011-04-12T01:56:14Z</time>
      </trkpt>
      <trkpt lat="48.67769" lon="6.34623">
        <ele>220</ele>
        <time>2011-04-12T01:56:19Z</time>
      </trkpt>
      <trkpt lat="48.67733" lon="6.34527">
        <ele>219</ele>
        <time>2011-04-12T01:56:29Z</time>
      </trkpt>
      <trkpt lat="48.67697" lon="6.34444">
        <ele>217</ele>
        <time>2011-04-12T01:56:37Z</time>
      </trkpt>
      <trkpt lat="48.67658" lon="6.34482">
        <ele>215</ele>
        <time>2011-04-12T01:56:44Z</time>
      </trkpt>
      <trkpt lat="48.67532" lon="6.34574">
        <ele>212</ele>
        <time>2011-04-12T01:57:02Z</time>
      </trkpt>
      <trkpt lat="48.67399" lon="6.34645">
        <ele>214</ele>
        <time>2011-04-12T01:57:26Z</time>
      </trkpt>
      <trkpt lat="48.66841" lon="6.35198">
        <ele>230</ele>
        <time>2011-04-12T01:59:33Z</time>
      </trkpt>
      <trkpt lat="48.66812" lon="6.35218">
        <ele>230</ele>
        <time>2011-04-12T01:59:38Z</time>
      </trkpt>
      <trkpt lat="48.66725" lon="6.35223">
        <ele>230</ele>
        <time>2011-04-12T01:59:49Z</time>
      </trkpt>
      <trkpt lat="48.66709" lon="6.35235">
        <ele>229</ele>
        <time>2011-04-12T01:59:52Z</time>
      </trkpt>
      <trkpt lat="48.66562" lon="6.35396">
        <ele>229</ele>
        <time>2011-04-12T02:00:16Z</time>
      </trkpt>
      <trkpt lat="48.66375" lon="6.35567">
        <ele>236</ele>
        <time>2011-04-12T02:01:02Z</time>
      </trkpt>
      <trkpt lat="48.66319" lon="6.35614">
        <ele>239</ele>
        <time>2011-04-12T02:01:19Z</time>
      </trkpt>
      <trkpt lat="48.66267" lon="6.3565">
        <ele>243</ele>
        <time>2011-04-12T02:01:35Z</time>
      </trkpt>
      <trkpt lat="48.66184" lon="6.357">
        <ele>247</ele>
        <time>2011-04-12T02:01:57Z</time>
      </trkpt>
      <trkpt lat="48.66121" lon="6.35729">
        <ele>250</ele>
        <time>2011-04-12T02:02:12Z</time>
      </trkpt>
      <trkpt lat="48.66116" lon="6.35736">
        <ele>250</ele>
        <time>2011-04-12T02:02:13Z</time>
      </trkpt>
      <trkpt lat="48.66113" lon="6.35753">
        <ele>250</ele>
        <time>2011-04-12T02:02:15Z</time>
      </trkpt>
      <trkpt lat="48.66113" lon="6.35798">
        <ele>250</ele>
        <time>2011-04-12T02:02:20Z</time>
      </trkpt>
      <trkpt lat="48.66118" lon="6.35938">
        <ele>251</ele>
        <time>2011-04-12T02:02:34Z</time>
      </trkpt>
      <trkpt lat="48.66112" lon="6.35996">
        <ele>252</ele>
        <time>2011-04-12T02:02:42Z</time>
      </trkpt>
      <trkpt lat="48.66104" lon="6.36023">
        <ele>253</ele>
        <time>2011-04-12T02:02:47Z</time>
      </trkpt>
      <trkpt lat="48.66061" lon="6.36106">
        <ele>256</ele>
        <time>2011-04-12T02:03:03Z</time>
      </trkpt>
      <trkpt lat="48.66162" lon="6.36297">
        <ele>257</ele>
        <time>2011-04-12T02:03:27Z</time>
      </trkpt>
      <trkpt lat="48.66179" lon="6.36336">
        <ele>256</ele>
        <time>2011-04-12T02:03:31Z</time>
      </trkpt>
      <trkpt lat="48.66208" lon="6.36427">
        <ele>256</ele>
        <time>2011-04-12T02:03:40Z</time>
      </trkpt>
      <trkpt lat="48.66142" lon="6.36528">
        <ele>257</ele>
        <time>2011-04-12T02:03:55Z</time>
      </trkpt>
      <trkpt lat="48.66074" lon="6.36658">
        <ele>258</ele>
        <time>2011-04-12T02:04:12Z</time>
      </trkpt>
      <trkpt lat="48.66029" lon="6.36727">
        <ele>259</ele>
        <time>2011-04-12T02:04:25Z</time>
      </trkpt>
      <trkpt lat="48.65881" lon="6.36911">
        <ele>265</ele>
        <time>2011-04-12T02:05:03Z</time>
      </trkpt>
      <trkpt lat="48.65876" lon="6.36947">
        <ele>265</ele>
        <time>2011-04-12T02:05:06Z</time>
      </trkpt>
      <trkpt lat="48.65875" lon="6.37016">
        <ele>265</ele>
        <time>2011-04-12T02:05:13Z</time>
      </trkpt>
      <trkpt lat="48.65869" lon="6.37041">
        <ele>265</ele>
        <time>2011-04-12T02:05:15Z</time>
      </trkpt>
      <trkpt lat="48.65791" lon="6.37229">
        <ele>266</ele>
        <time>2011-04-12T02:05:36Z</time>
      </trkpt>
      <trkpt lat="48.65743" lon="6.373">
        <ele>267</ele>
        <time>2011-04-12T02:05:49Z</time>
      </trkpt>
      <trkpt lat="48.65686" lon="6.37372">
        <ele>269</ele>
        <time>2011-04-12T02:06:02Z</time>
      </trkpt>
      <trkpt lat="48.65639" lon="6.3745">
        <ele>268</ele>
        <time>2011-04-12T02:06:12Z</time>
      </trkpt>
      <trkpt lat="48.65629" lon="6.37475">
        <ele>268</ele>
        <time>2011-04-12T02:06:14Z</time>
      </trkpt>
      <trkpt lat="48.6561" lon="6.37545">
        <ele>268</ele>
        <time>2011-04-12T02:06:21Z</time>
      </trkpt>
      <trkpt lat="48.65526" lon="6.37717">
        <ele>271</ele>
        <time>2011-04-12T02:06:47Z</time>
      </trkpt>
      <trkpt lat="48.65499" lon="6.37785">
        <ele>272</ele>
        <time>2011-04-12T02:06:58Z</time>
      </trkpt>
      <trkpt lat="48.65423" lon="6.3795">
        <ele>277</ele>
        <time>2011-04-12T02:07:26Z</time>
      </trkpt>
      <trkpt lat="48.65404" lon="6.3801">
        <ele>280</ele>
        <time>2011-04-12T02:07:40Z</time>
      </trkpt>
      <trkpt lat="48.6537" lon="6.38074">
        <ele>284</ele>
        <time>2011-04-12T02:07:56Z</time>
      </trkpt>
      <trkpt lat="48.65304" lon="6.38158">
        <ele>287</ele>
        <time>2011-04-12T02:08:17Z</time>
      </trkpt>
      <trkpt lat="48.65247" lon="6.38264">
        <ele>292</ele>
        <time>2011-04-12T02:08:39Z</time>
      </trkpt>
      <trkpt lat="48.65219" lon="6.38307">
        <ele>291</ele>
        <time>2011-04-12T02:08:44Z</time>
      </trkpt>
      <trkpt lat="48.65154" lon="6.38374">
        <ele>290</ele>
        <time>2011-04-12T02:08:55Z</time>
      </trkpt>
      <trkpt lat="48.65143" lon="6.3839">
        <ele>288</ele>
        <time>2011-04-12T02:08:57Z</time>
      </trkpt>
      <trkpt lat="48.65109" lon="6.38477">
        <ele>282</ele>
        <time>2011-04-12T02:09:06Z</time>
      </trkpt>
      <trkpt lat="48.65101" lon="6.3849">
        <ele>281</ele>
        <time>2011-04-12T02:09:07Z</time>
      </trkpt>
      <trkpt lat="48.65008" lon="6.38578">
        <ele>280</ele>
        <time>2011-04-12T02:09:22Z</time>
      </trkpt>
      <trkpt lat="48.6483" lon="6.38717">
        <ele>277</ele>
        <time>2011-04-12T02:09:49Z</time>
      </trkpt>
      <trkpt lat="48.64752" lon="6.38761">
        <ele>274</ele>
        <time>2011-04-12T02:10:00Z</time>
      </trkpt>
      <trkpt lat="48.6473" lon="6.3879">
        <ele>274</ele>
        <time>2011-04-12T02:10:04Z</time>
      </trkpt>
      <trkpt lat="48.64695" lon="6.38896">
        <ele>271</ele>
        <time>2011-04-12T02:10:14Z</time>
      </trkpt>
      <trkpt lat="48.6467" lon="6.39005">
        <ele>269</ele>
        <time>2011-04-12T02:10:24Z</time>
      </trkpt>
      <trkpt lat="48.64647" lon="6.39145">
        <ele>266</ele>
        <time>2011-04-12T02:10:37Z</time>
      </trkpt>
      <trkpt lat="48.64627" lon="6.39212">
        <ele>265</ele>
        <time>2011-04-12T02:10:44Z</time>
      </trkpt>
      <trkpt lat="48.64607" lon="6.3925">
        <ele>265</ele>
        <time>2011-04-12T02:10:48Z</time>
      </trkpt>
      <trkpt lat="48.64577" lon="6.39291">
        <ele>265</ele>
        <time>2011-04-12T02:10:53Z</time>
      </trkpt>
      <trkpt lat="48.64527" lon="6.39335">
        <ele>261</ele>
        <time>2011-04-12T02:11:01Z</time>
      </trkpt>
      <trkpt lat="48.64489" lon="6.39381">
        <ele>259</ele>
        <time>2011-04-12T02:11:08Z</time>
      </trkpt>
      <trkpt lat="48.64474" lon="6.39417">
        <ele>256</ele>
        <time>2011-04-12T02:11:11Z</time>
      </trkpt>
      <trkpt lat="48.64472" lon="6.39627">
        <ele>243</ele>
        <time>2011-04-12T02:11:30Z</time>
      </trkpt>
      <trkpt lat="48.64472" lon="6.39627">
        <ele>243</ele>
        <time>2011-04-12T02:11:31Z</time>
      </trkpt>
      <trkpt lat="48.6447" lon="6.39727">
        <ele>236</ele>
        <time>2011-04-12T02:11:40Z</time>
      </trkpt>
      <trkpt lat="48.64465" lon="6.39763">
        <ele>234</ele>
        <time>2011-04-12T02:11:43Z</time>
      </trkpt>
      <trkpt lat="48.64288" lon="6.40112">
        <ele>223</ele>
        <time>2011-04-12T02:12:22Z</time>
      </trkpt>
      <trkpt lat="48.64277" lon="6.40131">
        <ele>222</ele>
        <time>2011-04-12T02:12:24Z</time>
      </trkpt>
      <trkpt lat="48.64255" lon="6.40154">
        <ele>222</ele>
        <time>2011-04-12T02:12:28Z</time>
      </trkpt>
      <trkpt lat="48.64272" lon="6.40094">
        <ele>222</ele>
        <time>2011-04-12T02:12:33Z</time>
      </trkpt>
      <trkpt lat="48.64277" lon="6.39979">
        <ele>221</ele>
        <time>2011-04-12T02:12:43Z</time>
      </trkpt>
      <trkpt lat="48.64305" lon="6.39878">
        <ele>221</ele>
        <time>2011-04-12T02:12:53Z</time>
      </trkpt>
      <trkpt lat="48.64316" lon="6.39807">
        <ele>220</ele>
        <time>2011-04-12T02:13:00Z</time>
      </trkpt>
      <trkpt lat="48.64317" lon="6.3974">
        <ele>220</ele>
        <time>2011-04-12T02:13:06Z</time>
      </trkpt>
      <trkpt lat="48.64305" lon="6.39653">
        <ele>220</ele>
        <time>2011-04-12T02:13:13Z</time>
      </trkpt>
      <trkpt lat="48.64279" lon="6.39574">
        <ele>220</ele>
        <time>2011-04-12T02:13:21Z</time>
      </trkpt>
      <trkpt lat="48.64257" lon="6.39538">
        <ele>220</ele>
        <time>2011-04-12T02:13:26Z</time>
      </trkpt>
      <trkpt lat="48.64211" lon="6.39488">
        <ele>220</ele>
        <time>2011-04-12T02:13:35Z</time>
      </trkpt>
      <trkpt lat="48.64161" lon="6.39454">
        <ele>221</ele>
        <time>2011-04-12T02:13:43Z</time>
      </trkpt>
      <trkpt lat="48.64067" lon="6.39403">
        <ele>217</ele>
        <time>2011-04-12T02:13:56Z</time>
      </trkpt>
      <trkpt lat="48.6404" lon="6.39377">
        <ele>217</ele>
        <time>2011-04-12T02:14:00Z</time>
      </trkpt>
      <trkpt lat="48.63929" lon="6.39214">
        <ele>217</ele>
        <time>2011-04-12T02:14:21Z</time>
      </trkpt>
      <trkpt lat="48.63909" lon="6.39173">
        <ele>217</ele>
        <time>2011-04-12T02:14:26Z</time>
      </trkpt>
      <trkpt lat="48.639" lon="6.39147">
        <ele>217</ele>
        <time>2011-04-12T02:14:28Z</time>
      </trkpt>
      <trkpt lat="48.63883" lon="6.38985">
        <ele>217</ele>
        <time>2011-04-12T02:14:43Z</time>
      </trkpt>
      <trkpt lat="48.6385" lon="6.38761">
        <ele>214</ele>
        <time>2011-04-12T02:15:03Z</time>
      </trkpt>
      <trkpt lat="48.6385" lon="6.38723">
        <ele>214</ele>
        <time>2011-04-12T02:15:06Z</time>
      </trkpt>
      <trkpt lat="48.63859" lon="6.3865">
        <ele>214</ele>
        <time>2011-04-12T02:15:13Z</time>
      </trkpt>
      <trkpt lat="48.6386" lon="6.38614">
        <ele>214</ele>
        <time>2011-04-12T02:15:16Z</time>
      </trkpt>
      <trkpt lat="48.63855" lon="6.38469">
        <ele>213</ele>
        <time>2011-04-12T02:15:29Z</time>
      </trkpt>
      <trkpt lat="48.63855" lon="6.38469">
        <ele>213</ele>
        <time>2011-04-12T02:15:30Z</time>
      </trkpt>
      <trkpt lat="48.63853" lon="6.38356">
        <ele>213</ele>
        <time>2011-04-12T02:15:42Z</time>
      </trkpt>
      <trkpt lat="48.63846" lon="6.38322">
        <ele>214</ele>
        <time>2011-04-12T02:15:45Z</time>
      </trkpt>
      <trkpt lat="48.63732" lon="6.37898">
        <ele>213</ele>
        <time>2011-04-12T02:16:26Z</time>
      </trkpt>
      <trkpt lat="48.63731" lon="6.37887">
        <ele>213</ele>
        <time>2011-04-12T02:16:27Z</time>
      </trkpt>
      <trkpt lat="48.63738" lon="6.37865">
        <ele>213</ele>
        <time>2011-04-12T02:16:30Z</time>
      </trkpt>
      <trkpt lat="48.63759" lon="6.37816">
        <ele>214</ele>
        <time>2011-04-12T02:16:37Z</time>
      </trkpt>
      <trkpt lat="48.63758" lon="6.37748">
        <ele>215</ele>
        <time>2011-04-12T02:16:45Z</time>
      </trkpt>
      <trkpt lat="48.63732" lon="6.37731">
        <ele>214</ele>
        <time>2011-04-12T02:16:49Z</time>
      </trkpt>
      <trkpt lat="48.6372" lon="6.37717">
        <ele>214</ele>
        <time>2011-04-12T02:16:51Z</time>
      </trkpt>
      <trkpt lat="48.63709" lon="6.37697">
        <ele>214</ele>
        <time>2011-04-12T02:16:53Z</time>
      </trkpt>
      <trkpt lat="48.63663" lon="6.37578">
        <ele>214</ele>
        <time>2011-04-12T02:17:05Z</time>
      </trkpt>
      <trkpt lat="48.63393" lon="6.36898">
        <ele>212</ele>
        <time>2011-04-12T02:18:15Z</time>
      </trkpt>
      <trkpt lat="48.63393" lon="6.36898">
        <ele>211</ele>
        <time>2011-04-12T02:18:15Z</time>
      </trkpt>
      <trkpt lat="48.63325" lon="6.36926">
        <ele>209</ele>
        <time>2011-04-12T02:18:25Z</time>
      </trkpt>
      <trkpt lat="48.63285" lon="6.36968">
        <ele>207</ele>
        <time>2011-04-12T02:18:31Z</time>
      </trkpt>
      <trkpt lat="48.63222" lon="6.37024">
        <ele>207</ele>
        <time>2011-04-12T02:18:43Z</time>
      </trkpt>
      <trkpt lat="48.63112" lon="6.37086">
        <ele>209</ele>
        <time>2011-04-12T02:19:01Z</time>
      </trkpt>
      <trkpt lat="48.63061" lon="6.36913">
        <ele>206</ele>
        <time>2011-04-12T02:19:18Z</time>
      </trkpt>
      <trkpt lat="48.63008" lon="6.36757">
        <ele>206</ele>
        <time>2011-04-12T02:19:33Z</time>
      </trkpt>
      <trkpt lat="48.62961" lon="6.36589">
        <ele>204</ele>
        <time>2011-04-12T02:19:50Z</time>
      </trkpt>
      <trkpt lat="48.62961" lon="6.36589">
        <ele>204</ele>
        <time>2011-04-12T02:19:51Z</time>
      </trkpt>
      <trkpt lat="48.62952" lon="6.36556">
        <ele>204</ele>
        <time>2011-04-12T02:19:54Z</time>
      </trkpt>
      <trkpt lat="48.62883" lon="6.36144">
        <ele>205</ele>
        <time>2011-04-12T02:20:34Z</time>
      </trkpt>
      <trkpt lat="48.62842" lon="6.36039">
        <ele>204</ele>
        <time>2011-04-12T02:20:44Z</time>
      </trkpt>
      <trkpt lat="48.62825" lon="6.35963">
        <ele>204</ele>
        <time>2011-04-12T02:20:52Z</time>
      </trkpt>
      <trkpt lat="48.62812" lon="6.35881">
        <ele>204</ele>
        <time>2011-04-12T02:21:01Z</time>
      </trkpt>
      <trkpt lat="48.62791" lon="6.35794">
        <ele>206</ele>
        <time>2011-04-12T02:21:12Z</time>
      </trkpt>
      <trkpt lat="48.62727" lon="6.35617">
        <ele>209</ele>
        <time>2011-04-12T02:21:37Z</time>
      </trkpt>
      <trkpt lat="48.62716" lon="6.3557">
        <ele>209</ele>
        <time>2011-04-12T02:21:42Z</time>
      </trkpt>
      <trkpt lat="48.62702" lon="6.35451">
        <ele>210</ele>
        <time>2011-04-12T02:21:54Z</time>
      </trkpt>
      <trkpt lat="48.62702" lon="6.35372">
        <ele>210</ele>
        <time>2011-04-12T02:22:01Z</time>
      </trkpt>
      <trkpt lat="48.62691" lon="6.35112">
        <ele>210</ele>
        <time>2011-04-12T02:22:24Z</time>
      </trkpt>
      <trkpt lat="48.62628" lon="6.34863">
        <ele>209</ele>
        <time>2011-04-12T02:22:48Z</time>
      </trkpt>
      <trkpt lat="48.62584" lon="6.34759">
        <ele>210</ele>
        <time>2011-04-12T02:23:04Z</time>
      </trkpt>
      <trkpt lat="48.62543" lon="6.34648">
        <ele>213</ele>
        <time>2011-04-12T02:23:20Z</time>
      </trkpt>
      <trkpt lat="48.62554" lon="6.34636">
        <ele>212</ele>
        <time>2011-04-12T02:23:21Z</time>
      </trkpt>
      <trkpt lat="48.62657" lon="6.34453">
        <ele>208</ele>
        <time>2011-04-12T02:23:43Z</time>
      </trkpt>
      <trkpt lat="48.62694" lon="6.34395">
        <ele>207</ele>
        <time>2011-04-12T02:23:50Z</time>
      </trkpt>
      <trkpt lat="48.62789" lon="6.34293">
        <ele>207</ele>
        <time>2011-04-12T02:24:05Z</time>
      </trkpt>
      <trkpt lat="48.6281" lon="6.34236">
        <ele>208</ele>
        <time>2011-04-12T02:24:14Z</time>
      </trkpt>
      <trkpt lat="48.62863" lon="6.33981">
        <ele>214</ele>
        <time>2011-04-12T02:24:52Z</time>
      </trkpt>
      <trkpt lat="48.62913" lon="6.33789">
        <ele>211</ele>
        <time>2011-04-12T02:25:10Z</time>
      </trkpt>
      <trkpt lat="48.63136" lon="6.32832">
        <ele>208</ele>
        <time>2011-04-12T02:26:39Z</time>
      </trkpt>
      <trkpt lat="48.63186" lon="6.3264">
        <ele>206</ele>
        <time>2011-04-12T02:26:58Z</time>
      </trkpt>
      <trkpt lat="48.632" lon="6.32618">
        <ele>206</ele>
        <time>2011-04-12T02:27:02Z</time>
      </trkpt>
      <trkpt lat="48.63246" lon="6.32579">
        <ele>208</ele>
        <time>2011-04-12T02:27:13Z</time>
      </trkpt>
      <trkpt lat="48.63265" lon="6.32557">
        <ele>209</ele>
        <time>2011-04-12T02:27:18Z</time>
      </trkpt>
      <trkpt lat="48.6333" lon="6.32394">
        <ele>209</ele>
        <time>2011-04-12T02:27:35Z</time>
      </trkpt>
      <trkpt lat="48.63377" lon="6.32288">
        <ele>208</ele>
        <time>2011-04-12T02:27:46Z</time>
      </trkpt>
      <trkpt lat="48.63406" lon="6.32172">
        <ele>208</ele>
        <time>2011-04-12T02:27:57Z</time>
      </trkpt>
      <trkpt lat="48.6353" lon="6.31567">
        <ele>208</ele>
        <time>2011-04-12T02:28:53Z</time>
      </trkpt>
      <trkpt lat="48.63593" lon="6.31454">
        <ele>210</ele>
        <time>2011-04-12T02:29:10Z</time>
      </trkpt>
      <trkpt lat="48.6362" lon="6.31392">
        <ele>212</ele>
        <time>2011-04-12T02:29:23Z</time>
      </trkpt>
      <trkpt lat="48.6364" lon="6.31321">
        <ele>215</ele>
        <time>2011-04-12T02:29:36Z</time>
      </trkpt>
      <trkpt lat="48.63652" lon="6.3124">
        <ele>213</ele>
        <time>2011-04-12T02:29:43Z</time>
      </trkpt>
      <trkpt lat="48.63646" lon="6.31195">
        <ele>212</ele>
        <time>2011-04-12T02:29:47Z</time>
      </trkpt>
      <trkpt lat="48.63637" lon="6.31175">
        <ele>212</ele>
        <time>2011-04-12T02:29:49Z</time>
      </trkpt>
      <trkpt lat="48.6363" lon="6.31164">
        <ele>211</ele>
        <time>2011-04-12T02:29:51Z</time>
      </trkpt>
      <trkpt lat="48.63496" lon="6.3107">
        <ele>205</ele>
        <time>2011-04-12T02:30:10Z</time>
      </trkpt>
      <trkpt lat="48.63477" lon="6.31077">
        <ele>205</ele>
        <time>2011-04-12T02:30:14Z</time>
      </trkpt>
      <trkpt lat="48.63447" lon="6.31109">
        <ele>205</ele>
        <time>2011-04-12T02:30:20Z</time>
      </trkpt>
      <trkpt lat="48.63521" lon="6.31253">
        <ele>207</ele>
        <time>2011-04-12T02:30:39Z</time>
      </trkpt>
      <trkpt lat="48.63461" lon="6.31447">
        <ele>206</ele>
        <time>2011-04-12T02:30:58Z</time>
      </trkpt>
      <trkpt lat="48.63406" lon="6.31423">
        <ele>204</ele>
        <time>2011-04-12T02:31:05Z</time>
      </trkpt>
      <trkpt lat="48.63385" lon="6.31471">
        <ele>204</ele>
        <time>2011-04-12T02:31:11Z</time>
      </trkpt>
    </trkseg>
  </trk>
</gpx>